Observation data for Adrian on 12/12/2018      Previous  Date       Current Mesonet Observations  Soil Data  Daily Summary Page  Observations in Plain Language
KAD1 120600Z 11011KT 02/M09 A3002 RMK A01 T00211088  RH  044%=      5-min Rain = 0
KAD1 120601Z 11011KT 02/M09 A3002 RMK A01 T00211087  RH  044%=      5-min Rain = 0
KAD1 120602Z 11011KT 02/M09 A3002 RMK A01 T00211087  RH  045%=      5-min Rain = 0
KAD1 120603Z 10011KT 02/M09 A3002 RMK A01 T00201088  RH  045%=      5-min Rain = 0
KAD1 120604Z 10010KT 02/M09 A3002 RMK A01 T00191087  RH  045%=      5-min Rain = 0
KAD1 120605Z 10010KT 02/M09 A3003 RMK A01 T00191087  RH  045%=      5-min Rain = 0
KAD1 120606Z 10010KT 02/M09 A3003 RMK A01 T00191088  RH  045%=      5-min Rain = 0
KAD1 120607Z 10010KT 02/M09 A3003 RMK A01 T00201088  RH  045%=      5-min Rain = 0
KAD1 120608Z 11010KT 02/M09 A3002 RMK A01 T00201088  RH  045%=      5-min Rain = 0
KAD1 120609Z 11010KT 02/M09 A3002 RMK A01 T00191089  RH  045%=      5-min Rain = 0
KAD1 120610Z 11010KT 02/M09 A3002 RMK A01 T00181089  RH  045%=      5-min Rain = 0
KAD1 120611Z 11010KT 02/M09 A3002 RMK A01 T00161088  RH  046%=      5-min Rain = 0
KAD1 120612Z 11010KT 02/M09 A3002 RMK A01 T00161088  RH  046%=      5-min Rain = 0
KAD1 120613Z 11010KT 02/M09 A3002 RMK A01 T00151088  RH  046%=      5-min Rain = 0
KAD1 120614Z 11009KT 02/M09 A3002 RMK A01 T00151088  RH  047%=      5-min Rain = 0
KAD1 120615Z 11009KT 01/M09 A3002 RMK A01 T00141088  RH  047%=      5-min Rain = 0
KAD1 120616Z 10010KT 01/M09 A3003 RMK A01 T00131088  RH  047%=      5-min Rain = 0
KAD1 120617Z 10009KT 01/M09 A3003 RMK A01 T00121088  RH  047%=      5-min Rain = 0
KAD1 120618Z 10009KT 01/M09 A3003 RMK A01 T00111088  RH  048%=      5-min Rain = 0
KAD1 120619Z 10009KT 01/M09 A3003 RMK A01 T00101088  RH  048%=      5-min Rain = 0
KAD1 120620Z 10009KT 01/M09 A3003 RMK A01 T00091089  RH  048%=      5-min Rain = 0
KAD1 120621Z 10009KT 01/M09 A3003 RMK A01 T00081088  RH  048%=      5-min Rain = 0
KAD1 120622Z 10009KT 01/M09 A3003 RMK A01 T00081089  RH  048%=      5-min Rain = 0
KAD1 120623Z 10010KT 01/M09 A3003 RMK A01 T00081089  RH  048%=      5-min Rain = 0
KAD1 120624Z 09009KT 01/M09 A3003 RMK A01 T00091089  RH  048%=      5-min Rain = 0
KAD1 120625Z 09009KT 01/M09 A3003 RMK A01 T00111089  RH  047%=      5-min Rain = 0
KAD1 120626Z 09010KT 01/M09 A3003 RMK A01 T00131088  RH  047%=      5-min Rain = 0
KAD1 120627Z 09010KT 02/M09 A3003 RMK A01 T00161087  RH  046%=      5-min Rain = 0
KAD1 120628Z 09009KT 02/M09 A3003 RMK A01 T00191087  RH  045%=      5-min Rain = 0
KAD1 120629Z 10009KT 02/M09 A3003 RMK A01 T00201088  RH  045%=      5-min Rain = 0
KAD1 120630Z 09009KT 02/M09 A3003 RMK A01 T00211089  RH  044%=      5-min Rain = 0
KAD1 120631Z 09009KT 02/M09 A3003 RMK A01 T00211090  RH  044%=      5-min Rain = 0
KAD1 120632Z 09009KT 02/M09 A3003 RMK A01 T00221090  RH  043%=      5-min Rain = 0
KAD1 120633Z 08010KT 02/M09 A3003 RMK A01 T00221091  RH  043%=      5-min Rain = 0
KAD1 120634Z 08009KT 02/M09 A3004 RMK A01 T00221091  RH  043%=      5-min Rain = 0
KAD1 120635Z 08009KT 02/M09 A3004 RMK A01 T00211091  RH  043%=      5-min Rain = 0
KAD1 120636Z 08009KT 02/M09 A3003 RMK A01 T00191091  RH  044%=      5-min Rain = 0
KAD1 120637Z 09009KT 02/M09 A3003 RMK A01 T00161092  RH  044%=      5-min Rain = 0
KAD1 120638Z 09009KT 02/M09 A3003 RMK A01 T00161092  RH  045%=      5-min Rain = 0
KAD1 120639Z 09009KT 02/M09 A3003 RMK A01 T00171091  RH  044%=      5-min Rain = 0
KAD1 120640Z 09008KT 02/M09 A3003 RMK A01 T00181091  RH  044%=      5-min Rain = 0
KAD1 120641Z 09008KT 02/M09 A3003 RMK A01 T00171092  RH  044%=      5-min Rain = 0
KAD1 120642Z 09008KT 02/M09 A3003 RMK A01 T00161092  RH  045%=      5-min Rain = 0
KAD1 120643Z 08008KT 02/M09 A3003 RMK A01 T00151092  RH  045%=      5-min Rain = 0
KAD1 120644Z 08008KT 01/M09 A3003 RMK A01 T00141092  RH  045%=      5-min Rain = 0
KAD1 120645Z 07008KT 01/M09 A3003 RMK A01 T00131092  RH  045%=      5-min Rain = 0
KAD1 120646Z 07008KT 01/M09 A3003 RMK A01 T00131092  RH  046%=      5-min Rain = 0
KAD1 120647Z 08008KT 01/M09 A3003 RMK A01 T00121092  RH  046%=      5-min Rain = 0
KAD1 120648Z 08008KT 01/M09 A3003 RMK A01 T00101093  RH  046%=      5-min Rain = 0
KAD1 120649Z 08007KT 01/M09 A3003 RMK A01 T00091093  RH  047%=      5-min Rain = 0
KAD1 120650Z 08007KT 01/M09 A3003 RMK A01 T00091093  RH  047%=      5-min Rain = 0
KAD1 120651Z 08007KT 01/M09 A3003 RMK A01 T00081093  RH  047%=      5-min Rain = 0
KAD1 120652Z 08006KT 01/M09 A3003 RMK A01 T00081093  RH  047%=      5-min Rain = 0
KAD1 120653Z 08007KT 01/M09 A3003 RMK A01 T00091093  RH  046%=      5-min Rain = 0
KAD1 120654Z 08007KT 01/M09 A3003 RMK A01 T00091094  RH  046%=      5-min Rain = 0
KAD1 120655Z 08007KT 01/M09 A3003 RMK A01 T00081094  RH  046%=      5-min Rain = 0
KAD1 120656Z 08007KT 01/M09 A3003 RMK A01 T00081094  RH  046%=      5-min Rain = 0
KAD1 120657Z 08007KT 01/M09 A3003 RMK A01 T00081094  RH  047%=      5-min Rain = 0
KAD1 120658Z 08007KT 01/M09 A3003 RMK A01 T00071094  RH  047%=      5-min Rain = 0
KAD1 120659Z 08006KT 01/M09 A3002 RMK A01 T00081093  RH  047%=      5-min Rain = 0
KAD1 120700Z 09006KT 01/M09 A3002 RMK A01 T00091092  RH  047%=      5-min Rain = 0
KAD1 120701Z 09006KT 01/M09 A3002 RMK A01 T00101092  RH  046%=      5-min Rain = 0
KAD1 120702Z 08006KT 01/M09 A3002 RMK A01 T00101093  RH  046%=      5-min Rain = 0
KAD1 120703Z 08005KT 01/M09 A3002 RMK A01 T00091093  RH  046%=      5-min Rain = 0
KAD1 120704Z 07005KT 01/M09 A3002 RMK A01 T00081094  RH  046%=      5-min Rain = 0
KAD1 120705Z 06005KT 01/M09 A3002 RMK A01 T00081094  RH  046%=      5-min Rain = 0
KAD1 120706Z 06005KT 01/M09 A3002 RMK A01 T00071094  RH  047%=      5-min Rain = 0
KAD1 120707Z 05005KT 01/M09 A3002 RMK A01 T00071094  RH  047%=      5-min Rain = 0
KAD1 120708Z 05005KT 01/M09 A3002 RMK A01 T00081093  RH  047%=      5-min Rain = 0
KAD1 120709Z 04004KT 01/M09 A3002 RMK A01 T00071094  RH  047%=      5-min Rain = 0
KAD1 120710Z 04004KT 01/M10 A3002 RMK A01 T00061095  RH  047%=      5-min Rain = 0
KAD1 120711Z 03004KT 01/M09 A3002 RMK A01 T00061094  RH  047%=      5-min Rain = 0
KAD1 120712Z 02004KT 01/M09 A3002 RMK A01 T00081094  RH  046%=      5-min Rain = 0
KAD1 120713Z 02005KT 01/M09 A3002 RMK A01 T00101093  RH  046%=      5-min Rain = 0
KAD1 120714Z 02005KT 01/M09 A3002 RMK A01 T00111094  RH  046%=      5-min Rain = 0
KAD1 120715Z 02005KT 01/M09 A3002 RMK A01 T00141094  RH  045%=      5-min Rain = 0
KAD1 120716Z 02006KT 02/M09 A3002 RMK A01 T00161094  RH  044%=      5-min Rain = 0
KAD1 120717Z 02006KT 02/M09 A3002 RMK A01 T00171094  RH  043%=      5-min Rain = 0
KAD1 120718Z 02006KT 02/M10 A3002 RMK A01 T00161095  RH  043%=      5-min Rain = 0
KAD1 120719Z 02006KT 01/M10 A3002 RMK A01 T00121096  RH  044%=      5-min Rain = 0
KAD1 120720Z 02006KT 01/M10 A3002 RMK A01 T00111096  RH  045%=      5-min Rain = 0
KAD1 120721Z 01006KT 01/M10 A3002 RMK A01 T00111095  RH  045%=      5-min Rain = 0
KAD1 120722Z 01006KT 01/M09 A3002 RMK A01 T00111094  RH  046%=      5-min Rain = 0
KAD1 120723Z 01005KT 01/M09 A3002 RMK A01 T00101094  RH  046%=      5-min Rain = 0
KAD1 120724Z 01006KT 01/M10 A3002 RMK A01 T00081095  RH  046%=      5-min Rain = 0
KAD1 120725Z 34006KT 01/M10 A3002 RMK A01 T00071095  RH  047%=      5-min Rain = 0
KAD1 120726Z 33006KT 01/M09 A3002 RMK A01 T00051094  RH  047%=      5-min Rain = 0
KAD1 120727Z 33005KT 00/M09 A3002 RMK A01 T00041094  RH  048%=      5-min Rain = 0
KAD1 120728Z 34005KT 00/M09 A3002 RMK A01 T00031093  RH  048%=      5-min Rain = 0
KAD1 120729Z 34005KT 00/M09 A3002 RMK A01 T00031093  RH  049%=      5-min Rain = 0
KAD1 120730Z 34004KT 00/M09 A3002 RMK A01 T00021093  RH  049%=      5-min Rain = 0
KAD1 120731Z 35005KT 00/M09 A3002 RMK A01 T00011094  RH  049%=      5-min Rain = 0
KAD1 120732Z 35005KT 00/M09 A3002 RMK A01 T00011093  RH  049%=      5-min Rain = 0
KAD1 120733Z 35006KT 00/M09 A3002 RMK A01 T00011093  RH  049%=      5-min Rain = 0
KAD1 120734Z 35006KT 00/M09 A3002 RMK A01 T00021093  RH  049%=      5-min Rain = 0
KAD1 120735Z 35006KT 00/M09 A3003 RMK A01 T00021093  RH  049%=      5-min Rain = 0
KAD1 120736Z 36007KT 00/M09 A3003 RMK A01 T00011093  RH  049%=      5-min Rain = 0
KAD1 120737Z 35007KT 00/M09 A3003 RMK A01 T00011093  RH  049%=      5-min Rain = 0
KAD1 120738Z 35007KT 00/M09 A3003 RMK A01 T00021092  RH  049%=      5-min Rain = 0
KAD1 120739Z 35007KT 00/M09 A3003 RMK A01 T00021092  RH  049%=      5-min Rain = 0
KAD1 120740Z 35007KT 00/M09 A3003 RMK A01 T00021092  RH  049%=      5-min Rain = 0
KAD1 120741Z 35007KT 00/M09 A3003 RMK A01 T00031092  RH  049%=      5-min Rain = 0
KAD1 120742Z 35007KT 00/M09 A3003 RMK A01 T00041092  RH  049%=      5-min Rain = 0
KAD1 120743Z 35006KT 00/M09 A3003 RMK A01 T00041092  RH  049%=      5-min Rain = 0
KAD1 120744Z 35006KT 01/M09 A3003 RMK A01 T00051092  RH  048%=      5-min Rain = 0
KAD1 120745Z 35006KT 01/M09 A3003 RMK A01 T00051092  RH  048%=      5-min Rain = 0
KAD1 120746Z 35007KT 01/M09 A3003 RMK A01 T00051092  RH  048%=      5-min Rain = 0
KAD1 120747Z 35007KT 01/M09 A3003 RMK A01 T00051092  RH  048%=      5-min Rain = 0
KAD1 120748Z 36008KT 01/M09 A3003 RMK A01 T00051091  RH  048%=      5-min Rain = 0
KAD1 120749Z 35007KT 01/M09 A3003 RMK A01 T00061091  RH  048%=      5-min Rain = 0
KAD1 120750Z 35006KT 01/M09 A3003 RMK A01 T00051092  RH  048%=      5-min Rain = 0
KAD1 120751Z 35006KT 00/M09 A3003 RMK A01 T00041092  RH  049%=      5-min Rain = 0
KAD1 120752Z 35006KT 00/M09 A3003 RMK A01 T00041091  RH  049%=      5-min Rain = 0
KAD1 120753Z 35006KT 00/M09 A3003 RMK A01 T00031092  RH  049%=      5-min Rain = 0
KAD1 120754Z 35006KT 00/M09 A3003 RMK A01 T00021092  RH  049%=      5-min Rain = 0
KAD1 120755Z 35006KT 00/M09 A3003 RMK A01 T00011092  RH  049%=      5-min Rain = 0
KAD1 120756Z 35006KT 00/M09 A3003 RMK A01 T00011092  RH  050%=      5-min Rain = 0
KAD1 120757Z 35006KT 00/M09 A3003 RMK A01 T00011091  RH  050%=      5-min Rain = 0
KAD1 120758Z 35006KT 00/M09 A3003 RMK A01 T00011091  RH  050%=      5-min Rain = 0
KAD1 120759Z 35007KT 00/M09 A3003 RMK A01 T00011091  RH  050%=      5-min Rain = 0
KAD1 120800Z 35007KT 00/09 A3003 RMK A01 T00-00-91  RH  050%=      5-min Rain = 0
KAD1 120801Z 35007KT M00/M09 A3003 RMK A01 T10011091  RH  050%=      5-min Rain = 0
KAD1 120802Z 34008KT 00/09 A3003 RMK A01 T00-00-91  RH  050%=      5-min Rain = 0
KAD1 120803Z 34008KT 00/09 A3003 RMK A01 T00000-90  RH  051%=      5-min Rain = 0
KAD1 120804Z 34008KT 00/M09 A3003 RMK A01 T00011090  RH  051%=      5-min Rain = 0
KAD1 120805Z 34007KT 00/09 A3003 RMK A01 T00000-90  RH  051%=      5-min Rain = 0
KAD1 120806Z 33007KT 00/M09 A3003 RMK A01 T00011090  RH  050%=      5-min Rain = 0
KAD1 120807Z 33007KT 00/M09 A3003 RMK A01 T00011090  RH  050%=      5-min Rain = 0
KAD1 120808Z 33006KT 00/M09 A3003 RMK A01 T00021090  RH  050%=      5-min Rain = 0
KAD1 120809Z 33007KT 00/M09 A3003 RMK A01 T00031091  RH  049%=      5-min Rain = 0
KAD1 120810Z 34007KT 00/M09 A3003 RMK A01 T00021091  RH  050%=      5-min Rain = 0
KAD1 120811Z 33007KT 00/M09 A3003 RMK A01 T00011091  RH  050%=      5-min Rain = 0
KAD1 120812Z 33007KT 00/09 A3003 RMK A01 T00000-91  RH  050%=      5-min Rain = 0
KAD1 120813Z 33006KT 00/09 A3003 RMK A01 T00-00-91  RH  050%=      5-min Rain = 0
KAD1 120814Z 32006KT M00/M09 A3003 RMK A01 T10011092  RH  050%=      5-min Rain = 0
KAD1 120815Z 32006KT M00/M09 A3003 RMK A01 T10011092  RH  050%=      5-min Rain = 0
KAD1 120816Z 32007KT M00/M09 A3003 RMK A01 T10011091  RH  051%=      5-min Rain = 0
KAD1 120817Z 33007KT M00/M09 A3003 RMK A01 T10021091  RH  051%=      5-min Rain = 0
KAD1 120818Z 34007KT M00/M09 A3003 RMK A01 T10031092  RH  051%=      5-min Rain = 0
KAD1 120819Z 33007KT M00/M09 A3003 RMK A01 T10031091  RH  051%=      5-min Rain = 0
KAD1 120820Z 34007KT M00/M09 A3003 RMK A01 T10031091  RH  051%=      5-min Rain = 0
KAD1 120821Z 34006KT M00/M09 A3003 RMK A01 T10031091  RH  052%=      5-min Rain = 0
KAD1 120822Z 33006KT M00/M09 A3003 RMK A01 T10041092  RH  052%=      5-min Rain = 0
KAD1 120823Z 33006KT M01/M09 A3003 RMK A01 T10051092  RH  052%=      5-min Rain = 0
KAD1 120824Z 33006KT M01/M09 A3003 RMK A01 T10061092  RH  052%=      5-min Rain = 0
KAD1 120825Z 32006KT M01/M09 A3002 RMK A01 T10061091  RH  052%=      5-min Rain = 0
KAD1 120826Z 32006KT M01/M09 A3002 RMK A01 T10061091  RH  052%=      5-min Rain = 0
KAD1 120827Z 32006KT M01/M09 A3003 RMK A01 T10061091  RH  053%=      5-min Rain = 0
KAD1 120828Z 32006KT M01/M09 A3003 RMK A01 T10061091  RH  053%=      5-min Rain = 0
KAD1 120829Z 33007KT M01/M09 A3003 RMK A01 T10071091  RH  053%=      5-min Rain = 0
KAD1 120830Z 33007KT M01/M09 A3003 RMK A01 T10071091  RH  053%=      5-min Rain = 0
KAD1 120831Z 33008KT M01/M09 A3003 RMK A01 T10071091  RH  053%=      5-min Rain = 0
KAD1 120832Z 33008KT M01/M09 A3003 RMK A01 T10061091  RH  053%=      5-min Rain = 0
KAD1 120833Z 33007KT M01/M09 A3003 RMK A01 T10061091  RH  053%=      5-min Rain = 0
KAD1 120834Z 32007KT M01/M09 A3003 RMK A01 T10061090  RH  053%=      5-min Rain = 0
KAD1 120835Z 32006KT M01/M09 A3003 RMK A01 T10061091  RH  053%=      5-min Rain = 0
KAD1 120836Z 32006KT M01/M09 A3003 RMK A01 T10071091  RH  053%=      5-min Rain = 0
KAD1 120837Z 31006KT M01/M09 A3003 RMK A01 T10071091  RH  053%=      5-min Rain = 0
KAD1 120838Z 32006KT M01/M09 A3003 RMK A01 T10081091  RH  053%=      5-min Rain = 0
KAD1 120839Z 32006KT M01/M09 A3003 RMK A01 T10081091  RH  053%=      5-min Rain = 0
KAD1 120840Z 32006KT M01/M09 A3003 RMK A01 T10081091  RH  053%=      5-min Rain = 0
KAD1 120841Z 32006KT M01/M09 A3003 RMK A01 T10091091  RH  054%=      5-min Rain = 0
KAD1 120842Z 32006KT M01/M09 A3003 RMK A01 T10101092  RH  054%=      5-min Rain = 0
KAD1 120843Z 32006KT M01/M09 A3003 RMK A01 T10091091  RH  054%=      5-min Rain = 0
KAD1 120844Z 32006KT M01/M09 A3002 RMK A01 T10091091  RH  054%=      5-min Rain = 0
KAD1 120845Z 31005KT M01/M09 A3002 RMK A01 T10091091  RH  054%=      5-min Rain = 0
KAD1 120846Z 31005KT M01/M09 A3002 RMK A01 T10091091  RH  054%=      5-min Rain = 0
KAD1 120847Z 32005KT M01/M09 A3002 RMK A01 T10081091  RH  054%=      5-min Rain = 0
KAD1 120848Z 31005KT M01/M09 A3002 RMK A01 T10091091  RH  054%=      5-min Rain = 0
KAD1 120849Z 32004KT M01/M09 A3002 RMK A01 T10091092  RH  054%=      5-min Rain = 0
KAD1 120850Z 31004KT M01/M09 A3002 RMK A01 T10091092  RH  053%=      5-min Rain = 0
KAD1 120851Z 31003KT M01/M09 A3002 RMK A01 T10091092  RH  053%=      5-min Rain = 0
KAD1 120852Z 31003KT M01/M09 A3002 RMK A01 T10101093  RH  053%=      5-min Rain = 0
KAD1 120853Z 32003KT M01/M09 A3002 RMK A01 T10111093  RH  054%=      5-min Rain = 0
KAD1 120854Z 32004KT M01/M09 A3002 RMK A01 T10111093  RH  054%=      5-min Rain = 0
KAD1 120855Z 32005KT M01/M09 A3002 RMK A01 T10121093  RH  054%=      5-min Rain = 0
KAD1 120856Z 33005KT M01/M09 A3002 RMK A01 T10121093  RH  054%=      5-min Rain = 0
KAD1 120857Z 33005KT M01/M09 A3002 RMK A01 T10111093  RH  054%=      5-min Rain = 0
KAD1 120858Z 33005KT M01/M09 A3002 RMK A01 T10101092  RH  054%=      5-min Rain = 0
KAD1 120859Z 33005KT M01/M09 A3002 RMK A01 T10101092  RH  053%=      5-min Rain = 0
KAD1 120900Z 34004KT M01/M09 A3002 RMK A01 T10091092  RH  053%=      5-min Rain = 0
KAD1 120901Z 33004KT M01/M09 A3001 RMK A01 T10101093  RH  053%=      5-min Rain = 0
KAD1 120902Z 33004KT M01/M09 A3001 RMK A01 T10091092  RH  053%=      5-min Rain = 0
KAD1 120903Z 32004KT M01/M09 A3001 RMK A01 T10091092  RH  053%=      5-min Rain = 0
KAD1 120904Z 32004KT M01/M09 A3001 RMK A01 T10091092  RH  053%=      5-min Rain = 0
KAD1 120905Z 32004KT M01/M09 A3001 RMK A01 T10081092  RH  053%=      5-min Rain = 0
KAD1 120906Z 32004KT M01/M09 A3001 RMK A01 T10081093  RH  053%=      5-min Rain = 0
KAD1 120907Z 32005KT M01/M09 A3001 RMK A01 T10081093  RH  053%=      5-min Rain = 0
KAD1 120908Z 31005KT M01/M09 A3001 RMK A01 T10081092  RH  053%=      5-min Rain = 0
KAD1 120909Z 31005KT M01/M09 A3001 RMK A01 T10081093  RH  053%=      5-min Rain = 0
KAD1 120910Z 31005KT M01/M09 A3001 RMK A01 T10081093  RH  053%=      5-min Rain = 0
KAD1 120911Z 31004KT M01/M09 A3001 RMK A01 T10081092  RH  053%=      5-min Rain = 0
KAD1 120912Z 31004KT M01/M09 A3001 RMK A01 T10091093  RH  053%=      5-min Rain = 0
KAD1 120913Z 31004KT M01/M09 A3001 RMK A01 T10091093  RH  053%=      5-min Rain = 0
KAD1 120914Z 31004KT M01/M09 A3001 RMK A01 T10101093  RH  053%=      5-min Rain = 0
KAD1 120915Z 31004KT M01/M09 A3001 RMK A01 T10111093  RH  053%=      5-min Rain = 0
KAD1 120916Z 31004KT M01/M09 A3001 RMK A01 T10111093  RH  054%=      5-min Rain = 0
KAD1 120917Z 31004KT M01/M09 A3001 RMK A01 T10111093  RH  054%=      5-min Rain = 0
KAD1 120918Z 32004KT M01/M09 A3001 RMK A01 T10111093  RH  053%=      5-min Rain = 0
KAD1 120919Z 32005KT M01/M09 A3001 RMK A01 T10101093  RH  053%=      5-min Rain = 0
KAD1 120920Z 32005KT M01/M09 A30 RMK A01 T10091093  RH  053%=      5-min Rain = 0
KAD1 120921Z 31005KT M01/M09 A30 RMK A01 T10081093  RH  053%=      5-min Rain = 0
KAD1 120922Z 31005KT M01/M09 A30 RMK A01 T10091093  RH  053%=      5-min Rain = 0
KAD1 120923Z 31005KT M01/M09 A30 RMK A01 T10091093  RH  053%=      5-min Rain = 0
KAD1 120924Z 31005KT M01/M09 A30 RMK A01 T10081093  RH  053%=      5-min Rain = 0
KAD1 120925Z 31005KT M01/M09 A30 RMK A01 T10091093  RH  053%=      5-min Rain = 0
KAD1 120926Z 31005KT M01/M09 A30 RMK A01 T10101093  RH  053%=      5-min Rain = 0
KAD1 120927Z 30005KT M01/M09 A30 RMK A01 T10101093  RH  053%=      5-min Rain = 0
KAD1 120928Z 30005KT M01/M09 A30 RMK A01 T10101093  RH  053%=      5-min Rain = 0
KAD1 120929Z 30005KT M01/M09 A30 RMK A01 T10101093  RH  053%=      5-min Rain = 0
KAD1 120930Z 30005KT M01/M09 A30 RMK A01 T10091093  RH  053%=      5-min Rain = 0
KAD1 120931Z 29005KT M01/M09 A30 RMK A01 T10101093  RH  053%=      5-min Rain = 0
KAD1 120932Z 29005KT M01/M09 A30 RMK A01 T10101093  RH  054%=      5-min Rain = 0
KAD1 120933Z 29005KT M01/M09 A30 RMK A01 T10121094  RH  054%=      5-min Rain = 0
KAD1 120934Z 29004KT M02/M10 A30 RMK A01 T10151095  RH  054%=      5-min Rain = 0
KAD1 120935Z 29005KT M02/M10 A30 RMK A01 T10181096  RH  055%=      5-min Rain = 0
KAD1 120936Z 29005KT M02/M10 A30 RMK A01 T10211097  RH  056%=      5-min Rain = 0
KAD1 120937Z 29005KT M02/M10 A30 RMK A01 T10231096  RH  057%=      5-min Rain = 0
KAD1 120938Z 29006KT M03/M10 A30 RMK A01 T10251096  RH  058%=      5-min Rain = 0
KAD1 120939Z 29006KT M03/M10 A30 RMK A01 T10251095  RH  059%=      5-min Rain = 0
KAD1 120940Z 29006KT M03/M09 A30 RMK A01 T10251094  RH  059%=      5-min Rain = 0
KAD1 120941Z 29007KT M03/M09 A30 RMK A01 T10251093  RH  060%=      5-min Rain = 0
KAD1 120942Z 29007KT M03/M09 A30 RMK A01 T10261092  RH  060%=      5-min Rain = 0
KAD1 120943Z 30006KT M03/M09 A3001 RMK A01 T10261092  RH  060%=      5-min Rain = 0
KAD1 120944Z 29007KT M03/M09 A3001 RMK A01 T10251091  RH  060%=      5-min Rain = 0
KAD1 120945Z 30007KT M02/M09 A3001 RMK A01 T10231090  RH  060%=      5-min Rain = 0
KAD1 120946Z 30007KT M02/M09 A3001 RMK A01 T10211090  RH  059%=      5-min Rain = 0
KAD1 120947Z 30007KT M02/M09 A30 RMK A01 T10201091  RH  058%=      5-min Rain = 0
KAD1 120948Z 30007KT M02/M09 A30 RMK A01 T10191091  RH  058%=      5-min Rain = 0
KAD1 120949Z 30007KT M02/M09 A30 RMK A01 T10181091  RH  057%=      5-min Rain = 0
KAD1 120950Z 29007KT M02/M09 A30 RMK A01 T10181092  RH  057%=      5-min Rain = 0
KAD1 120951Z 29007KT M02/M09 A30 RMK A01 T10181091  RH  057%=      5-min Rain = 0
KAD1 120952Z 29007KT M02/M09 A30 RMK A01 T10181092  RH  057%=      5-min Rain = 0
KAD1 120953Z 29007KT M02/M09 A30 RMK A01 T10191092  RH  057%=      5-min Rain = 0
KAD1 120954Z 29006KT M02/M09 A30 RMK A01 T10201092  RH  058%=      5-min Rain = 0
KAD1 120955Z 29006KT M02/M09 A30 RMK A01 T10211092  RH  058%=      5-min Rain = 0
KAD1 120956Z 29006KT M02/M09 A30 RMK A01 T10221093  RH  058%=      5-min Rain = 0
KAD1 120957Z 28006KT M02/M09 A30 RMK A01 T10231094  RH  058%=      5-min Rain = 0
KAD1 120958Z 28007KT M03/M10 A30 RMK A01 T10251095  RH  059%=      5-min Rain = 0
KAD1 120959Z 27008KT M03/M10 A30 RMK A01 T10291096  RH  060%=      5-min Rain = 0
KAD1 121000Z 27009KT M03/M10 A30 RMK A01 T10321097  RH  061%=      5-min Rain = 0
KAD1 121001Z 26008KT M03/M10 A30 RMK A01 T10341096  RH  062%=      5-min Rain = 0
KAD1 121002Z 26009KT M03/M09 A30 RMK A01 T10341094  RH  063%=      5-min Rain = 0
KAD1 121003Z 26008KT M04/M09 A30 RMK A01 T10351093  RH  064%=      5-min Rain = 0
KAD1 121004Z 27008KT M04/M09 A30 RMK A01 T10351092  RH  065%=      5-min Rain = 0
KAD1 121005Z 27008KT M04/M09 A30 RMK A01 T10351092  RH  065%=      5-min Rain = 0
KAD1 121006Z 27008KT M04/M09 A30 RMK A01 T10351092  RH  065%=      5-min Rain = 0
KAD1 121007Z 26009KT M04/M09 A30 RMK A01 T10351092  RH  065%=      5-min Rain = 0
KAD1 121008Z 26009KT M03/M09 A2999 RMK A01 T10341091  RH  064%=      5-min Rain = 0
KAD1 121009Z 26008KT M03/M09 A2999 RMK A01 T10331091  RH  064%=      5-min Rain = 0
KAD1 121010Z 27007KT M03/M09 A2999 RMK A01 T10311091  RH  063%=      5-min Rain = 0
KAD1 121011Z 26007KT M03/M09 A2999 RMK A01 T10301091  RH  063%=      5-min Rain = 0
KAD1 121012Z 26008KT M03/M09 A2999 RMK A01 T10301092  RH  062%=      5-min Rain = 0
KAD1 121013Z 26008KT M03/M09 A2999 RMK A01 T10301092  RH  062%=      5-min Rain = 0
KAD1 121014Z 26008KT M03/M09 A2999 RMK A01 T10301092  RH  062%=      5-min Rain = 0
KAD1 121015Z 27008KT M03/M09 A2999 RMK A01 T10301092  RH  062%=      5-min Rain = 0
KAD1 121016Z 27008KT M03/M09 A2999 RMK A01 T10291092  RH  062%=      5-min Rain = 0
KAD1 121017Z 27008KT M03/M09 A2999 RMK A01 T10301092  RH  062%=      5-min Rain = 0
KAD1 121018Z 27008KT M03/M09 A2999 RMK A01 T10301092  RH  062%=      5-min Rain = 0
KAD1 121019Z 27008KT M03/M09 A2999 RMK A01 T10291091  RH  062%=      5-min Rain = 0
KAD1 121020Z 27007KT M03/M09 A2999 RMK A01 T10281091  RH  062%=      5-min Rain = 0
KAD1 121021Z 27008KT M03/M09 A2999 RMK A01 T10281091  RH  062%=      5-min Rain = 0
KAD1 121022Z 27008KT M03/M09 A2999 RMK A01 T10281092  RH  062%=      5-min Rain = 0
KAD1 121023Z 27008KT M03/M09 A2999 RMK A01 T10271091  RH  061%=      5-min Rain = 0
KAD1 121024Z 27008KT M03/M09 A2999 RMK A01 T10261092  RH  061%=      5-min Rain = 0
KAD1 121025Z 28008KT M03/M09 A2999 RMK A01 T10251091  RH  060%=      5-min Rain = 0
KAD1 121026Z 27007KT M03/M09 A2999 RMK A01 T10251092  RH  060%=      5-min Rain = 0
KAD1 121027Z 27007KT M03/M09 A2999 RMK A01 T10251092  RH  060%=      5-min Rain = 0
KAD1 121028Z 27008KT M03/M09 A2999 RMK A01 T10251092  RH  060%=      5-min Rain = 0
KAD1 121029Z 27008KT M03/M09 A2999 RMK A01 T10261092  RH  060%=      5-min Rain = 0
KAD1 121030Z 28008KT M03/M09 A2999 RMK A01 T10261092  RH  060%=      5-min Rain = 0
KAD1 121031Z 28008KT M03/M09 A2999 RMK A01 T10261093  RH  060%=      5-min Rain = 0
KAD1 121032Z 28008KT M03/M09 A2999 RMK A01 T10271092  RH  060%=      5-min Rain = 0
KAD1 121033Z 28007KT M03/M09 A2999 RMK A01 T10271093  RH  061%=      5-min Rain = 0
KAD1 121034Z 29007KT M03/M09 A2999 RMK A01 T10271092  RH  061%=      5-min Rain = 0
KAD1 121035Z 29008KT M03/M09 A2999 RMK A01 T10261092  RH  061%=      5-min Rain = 0
KAD1 121036Z 29008KT M03/M09 A2999 RMK A01 T10261092  RH  060%=      5-min Rain = 0
KAD1 121037Z 29008KT M03/M09 A2999 RMK A01 T10251092  RH  060%=      5-min Rain = 0
KAD1 121038Z 29008KT M02/M09 A2999 RMK A01 T10241092  RH  060%=      5-min Rain = 0
KAD1 121039Z 29008KT M02/M09 A2999 RMK A01 T10241092  RH  060%=      5-min Rain = 0
KAD1 121040Z 29008KT M02/M09 A2999 RMK A01 T10231092  RH  059%=      5-min Rain = 0
KAD1 121041Z 29008KT M02/M09 A2999 RMK A01 T10231092  RH  059%=      5-min Rain = 0
KAD1 121042Z 28008KT M02/M09 A2999 RMK A01 T10231092  RH  059%=      5-min Rain = 0
KAD1 121043Z 28008KT M02/M09 A2999 RMK A01 T10231093  RH  059%=      5-min Rain = 0
KAD1 121044Z 28008KT M02/M09 A2999 RMK A01 T10231093  RH  058%=      5-min Rain = 0
KAD1 121045Z 28007KT M02/M09 A2999 RMK A01 T10231093  RH  059%=      5-min Rain = 0
KAD1 121046Z 28007KT M02/M09 A2999 RMK A01 T10231093  RH  059%=      5-min Rain = 0
KAD1 121047Z 28007KT M02/M09 A2998 RMK A01 T10241093  RH  059%=      5-min Rain = 0
KAD1 121048Z 28008KT M02/M09 A2998 RMK A01 T10241093  RH  059%=      5-min Rain = 0
KAD1 121049Z 28008KT M03/M09 A2998 RMK A01 T10251094  RH  059%=      5-min Rain = 0
KAD1 121050Z 28007KT M03/M09 A2998 RMK A01 T10251094  RH  059%=      5-min Rain = 0
KAD1 121051Z 27007KT M03/M09 A2998 RMK A01 T10251094  RH  059%=      5-min Rain = 0
KAD1 121052Z 27007KT M03/M09 A2998 RMK A01 T10251094  RH  059%=      5-min Rain = 0
KAD1 121053Z 27007KT M03/M10 A2998 RMK A01 T10271095  RH  059%=      5-min Rain = 0
KAD1 121054Z 27007KT M03/M10 A2998 RMK A01 T10301096  RH  060%=      5-min Rain = 0
KAD1 121055Z 27008KT M03/M10 A2998 RMK A01 T10321096  RH  062%=      5-min Rain = 0
KAD1 121056Z 27007KT M03/M10 A2998 RMK A01 T10331095  RH  062%=      5-min Rain = 0
KAD1 121057Z 27007KT M04/M10 A2998 RMK A01 T10351095  RH  063%=      5-min Rain = 0
KAD1 121058Z 27006KT M04/M10 A2998 RMK A01 T10361095  RH  063%=      5-min Rain = 0
KAD1 121059Z 27006KT M04/M10 A2998 RMK A01 T10371096  RH  064%=      5-min Rain = 0
KAD1 121100Z 27007KT M04/M10 A2998 RMK A01 T10391096  RH  064%=      5-min Rain = 0
KAD1 121101Z 27008KT M04/M10 A2998 RMK A01 T10401096  RH  065%=      5-min Rain = 0
KAD1 121102Z 27008KT M04/M10 A2998 RMK A01 T10401096  RH  065%=      5-min Rain = 0
KAD1 121103Z 27008KT M04/M10 A2998 RMK A01 T10381095  RH  065%=      5-min Rain = 0
KAD1 121104Z 26008KT M04/M10 A2998 RMK A01 T10371095  RH  065%=      5-min Rain = 0
KAD1 121105Z 26008KT M04/M09 A2998 RMK A01 T10361094  RH  064%=      5-min Rain = 0
KAD1 121106Z 26008KT M04/M09 A2998 RMK A01 T10361094  RH  064%=      5-min Rain = 0
KAD1 121107Z 26007KT M04/M09 A2998 RMK A01 T10351094  RH  064%=      5-min Rain = 0
KAD1 121108Z 26007KT M03/M09 A2998 RMK A01 T10341093  RH  063%=      5-min Rain = 0
KAD1 121109Z 26006KT M04/M09 A2998 RMK A01 T10351094  RH  064%=      5-min Rain = 0
KAD1 121110Z 26007KT M04/M10 A2998 RMK A01 T10371095  RH  064%=      5-min Rain = 0
KAD1 121111Z 26008KT M04/M10 A2998 RMK A01 T10371095  RH  064%=      5-min Rain = 0
KAD1 121112Z 26008KT M04/M09 A2998 RMK A01 T10361094  RH  064%=      5-min Rain = 0
KAD1 121113Z 26009KT M04/M09 A2998 RMK A01 T10361094  RH  064%=      5-min Rain = 0
KAD1 121114Z 26010KT M04/M09 A2998 RMK A01 T10351093  RH  064%=      5-min Rain = 0
KAD1 121115Z 26010KT M03/M09 A2998 RMK A01 T10331093  RH  063%=      5-min Rain = 0
KAD1 121116Z 26009KT M03/M09 A2998 RMK A01 T10311093  RH  063%=      5-min Rain = 0
KAD1 121117Z 25009KT M03/M09 A2998 RMK A01 T10281092  RH  062%=      5-min Rain = 0
KAD1 121118Z 25008KT M03/M09 A2997 RMK A01 T10271092  RH  061%=      5-min Rain = 0
KAD1 121119Z 25009KT M03/M09 A2997 RMK A01 T10271093  RH  061%=      5-min Rain = 0
KAD1 121120Z 26010KT M03/M09 A2997 RMK A01 T10291093  RH  061%=      5-min Rain = 0
KAD1 121121Z 25011KT M03/M09 A2997 RMK A01 T10311092  RH  062%=      5-min Rain = 0
KAD1 121122Z 25011KT M03/M09 A2997 RMK A01 T10311092  RH  063%=      5-min Rain = 0
KAD1 121123Z 25011KT M03/M09 A2997 RMK A01 T10311092  RH  063%=      5-min Rain = 0
KAD1 121124Z 26011KT M03/M09 A2997 RMK A01 T10311092  RH  063%=      5-min Rain = 0
KAD1 121125Z 26010KT M03/M09 A2997 RMK A01 T10311092  RH  063%=      5-min Rain = 0
KAD1 121126Z 26010KT M03/M09 A2997 RMK A01 T10311092  RH  063%=      5-min Rain = 0
KAD1 121127Z 26010KT M03/M09 A2997 RMK A01 T10311092  RH  063%=      5-min Rain = 0
KAD1 121128Z 26010KT M03/M09 A2997 RMK A01 T10321092  RH  063%=      5-min Rain = 0
KAD1 121129Z 25010KT M03/M09 A2997 RMK A01 T10321093  RH  063%=      5-min Rain = 0
KAD1 121130Z 25010KT M03/M09 A2997 RMK A01 T10331093  RH  063%=      5-min Rain = 0
KAD1 121131Z 25010KT M03/M09 A2997 RMK A01 T10331093  RH  063%=      5-min Rain = 0
KAD1 121132Z 25010KT M03/M09 A2997 RMK A01 T10321092  RH  063%=      5-min Rain = 0
KAD1 121133Z 26010KT M03/M09 A2997 RMK A01 T10321092  RH  063%=      5-min Rain = 0
KAD1 121134Z 26009KT M03/M09 A2997 RMK A01 T10321093  RH  063%=      5-min Rain = 0
KAD1 121135Z 26009KT M03/M09 A2997 RMK A01 T10321093  RH  063%=      5-min Rain = 0
KAD1 121136Z 26010KT M03/M09 A2997 RMK A01 T10331093  RH  063%=      5-min Rain = 0
KAD1 121137Z 26009KT M03/M09 A2997 RMK A01 T10321093  RH  063%=      5-min Rain = 0
KAD1 121138Z 26010KT M03/M09 A2997 RMK A01 T10321093  RH  063%=      5-min Rain = 0
KAD1 121139Z 26010KT M03/M09 A2997 RMK A01 T10331094  RH  063%=      5-min Rain = 0
KAD1 121140Z 26011KT M03/M09 A2997 RMK A01 T10331094  RH  063%=      5-min Rain = 0
KAD1 121141Z 26011KT M03/M09 A2997 RMK A01 T10331094  RH  063%=      5-min Rain = 0
KAD1 121142Z 26011KT M03/M09 A2997 RMK A01 T10331094  RH  063%=      5-min Rain = 0
KAD1 121143Z 26011KT M03/M09 A2997 RMK A01 T10331094  RH  063%=      5-min Rain = 0
KAD1 121144Z 26011KT M03/M09 A2997 RMK A01 T10331094  RH  063%=      5-min Rain = 0
KAD1 121145Z 26010KT M03/M09 A2997 RMK A01 T10321094  RH  063%=      5-min Rain = 0
KAD1 121146Z 26010KT M03/M09 A2997 RMK A01 T10321094  RH  062%=      5-min Rain = 0
KAD1 121147Z 26010KT M03/M09 A2997 RMK A01 T10321093  RH  062%=      5-min Rain = 0
KAD1 121148Z 26011KT M03/M09 A2996 RMK A01 T10311093  RH  062%=      5-min Rain = 0
KAD1 121149Z 26011KT M03/M09 A2996 RMK A01 T10311094  RH  062%=      5-min Rain = 0
KAD1 121150Z 26011KT M03/M09 A2996 RMK A01 T10311094  RH  062%=      5-min Rain = 0
KAD1 121151Z 26011KT M03/M09 A2996 RMK A01 T10311093  RH  062%=      5-min Rain = 0
KAD1 121152Z 26011KT M03/M09 A2996 RMK A01 T10311094  RH  062%=      5-min Rain = 0
KAD1 121153Z 26010KT M03/M09 A2996 RMK A01 T10311093  RH  062%=      5-min Rain = 0
KAD1 121154Z 26010KT M03/M09 A2996 RMK A01 T10311093  RH  062%=      5-min Rain = 0
KAD1 121155Z 26010KT M03/M09 A2996 RMK A01 T10311093  RH  062%=      5-min Rain = 0
KAD1 121156Z 26010KT M03/M09 A2996 RMK A01 T10321094  RH  062%=      5-min Rain = 0
KAD1 121157Z 26010KT M03/M09 A2996 RMK A01 T10331094  RH  063%=      5-min Rain = 0
KAD1 121158Z 26010KT M03/M09 A2996 RMK A01 T10331094  RH  063%=      5-min Rain = 0
KAD1 121159Z 26010KT M03/M09 A2996 RMK A01 T10331094  RH  063%=      5-min Rain = 0
KAD1 121200Z 26010KT M03/M09 A2996 RMK A01 T10331094  RH  063%=      5-min Rain = 0
KAD1 121201Z 26010KT M03/M09 A2996 RMK A01 T10331094  RH  063%=      5-min Rain = 0
KAD1 121202Z 26010KT M03/M09 A2996 RMK A01 T10331094  RH  063%=      5-min Rain = 0
KAD1 121203Z 25010KT M03/M09 A2996 RMK A01 T10331094  RH  063%=      5-min Rain = 0
KAD1 121204Z 25011KT M03/M09 A2996 RMK A01 T10331094  RH  063%=      5-min Rain = 0
KAD1 121205Z 25011KT M03/M09 A2996 RMK A01 T10331094  RH  063%=      5-min Rain = 0
KAD1 121206Z 25010KT M03/M09 A2996 RMK A01 T10331094  RH  063%=      5-min Rain = 0
KAD1 121207Z 25010KT M03/M09 A2996 RMK A01 T10331093  RH  063%=      5-min Rain = 0
KAD1 121208Z 25010KT M03/M09 A2996 RMK A01 T10321093  RH  063%=      5-min Rain = 0
KAD1 121209Z 25010KT M03/M09 A2996 RMK A01 T10321094  RH  062%=      5-min Rain = 0
KAD1 121210Z 25010KT M03/M09 A2996 RMK A01 T10321094  RH  062%=      5-min Rain = 0
KAD1 121211Z 25010KT M03/M09 A2996 RMK A01 T10311094  RH  062%=      5-min Rain = 0
KAD1 121212Z 25009KT M03/M09 A2996 RMK A01 T10301094  RH  062%=      5-min Rain = 0
KAD1 121213Z 25009KT M03/M09 A2996 RMK A01 T10301094  RH  062%=      5-min Rain = 0
KAD1 121214Z 25009KT M03/M09 A2996 RMK A01 T10301094  RH  061%=      5-min Rain = 0
KAD1 121215Z 25010KT M03/M09 A2996 RMK A01 T10301094  RH  061%=      5-min Rain = 0
KAD1 121216Z 25010KT M03/M09 A2996 RMK A01 T10301093  RH  061%=      5-min Rain = 0
KAD1 121217Z 25010KT M03/M09 A2996 RMK A01 T10291093  RH  061%=      5-min Rain = 0
KAD1 121218Z 25010KT M03/M09 A2996 RMK A01 T10281093  RH  061%=      5-min Rain = 0
KAD1 121219Z 25009KT M03/M09 A2996 RMK A01 T10271093  RH  061%=      5-min Rain = 0
KAD1 121220Z 25009KT M03/M09 A2996 RMK A01 T10271094  RH  060%=      5-min Rain = 0
KAD1 121221Z 25009KT M03/M09 A2996 RMK A01 T10271094  RH  060%=      5-min Rain = 0
KAD1 121222Z 25008KT M03/M09 A2996 RMK A01 T10261094  RH  060%=      5-min Rain = 0
KAD1 121223Z 25008KT M03/M09 A2996 RMK A01 T10271094  RH  060%=      5-min Rain = 0
KAD1 121224Z 25008KT M03/M10 A2995 RMK A01 T10271095  RH  060%=      5-min Rain = 0
KAD1 121225Z 25008KT M03/M10 A2995 RMK A01 T10271095  RH  059%=      5-min Rain = 0
KAD1 121226Z 25009KT M03/M10 A2995 RMK A01 T10271095  RH  059%=      5-min Rain = 0
KAD1 121227Z 25009KT M03/M10 A2995 RMK A01 T10271095  RH  059%=      5-min Rain = 0
KAD1 121228Z 25009KT M03/M10 A2995 RMK A01 T10271095  RH  060%=      5-min Rain = 0
KAD1 121229Z 25008KT M03/M10 A2995 RMK A01 T10281095  RH  060%=      5-min Rain = 0
KAD1 121230Z 25008KT M03/M10 A2995 RMK A01 T10281095  RH  060%=      5-min Rain = 0
KAD1 121231Z 25007KT M03/M10 A2995 RMK A01 T10281095  RH  060%=      5-min Rain = 0
KAD1 121232Z 25006KT M03/M10 A2995 RMK A01 T10271095  RH  060%=      5-min Rain = 0
KAD1 121233Z 25006KT M03/M09 A2995 RMK A01 T10251094  RH  059%=      5-min Rain = 0
KAD1 121234Z 26006KT M02/M09 A2995 RMK A01 T10221094  RH  058%=      5-min Rain = 0
KAD1 121235Z 26006KT M02/M10 A2995 RMK A01 T10221095  RH  057%=      5-min Rain = 0
KAD1 121236Z 25006KT M02/M10 A2995 RMK A01 T10221095  RH  057%=      5-min Rain = 0
KAD1 121237Z 26006KT M02/M10 A2995 RMK A01 T10241097  RH  058%=      5-min Rain = 0
KAD1 121238Z 26006KT M03/M10 A2995 RMK A01 T10271097  RH  058%=      5-min Rain = 0
KAD1 121239Z 25006KT M03/M10 A2995 RMK A01 T10281098  RH  059%=      5-min Rain = 0
KAD1 121240Z 26006KT M03/M10 A2995 RMK A01 T10301098  RH  059%=      5-min Rain = 0
KAD1 121241Z 26006KT M03/M10 A2995 RMK A01 T10301097  RH  060%=      5-min Rain = 0
KAD1 121242Z 26006KT M03/M10 A2995 RMK A01 T10301097  RH  060%=      5-min Rain = 0
KAD1 121243Z 26006KT M03/M10 A2995 RMK A01 T10291097  RH  060%=      5-min Rain = 0
KAD1 121244Z 26006KT M03/M10 A2995 RMK A01 T10281096  RH  059%=      5-min Rain = 0
KAD1 121245Z 26007KT M03/M10 A2995 RMK A01 T10271096  RH  059%=      5-min Rain = 0
KAD1 121246Z 26007KT M03/M10 A2995 RMK A01 T10271097  RH  059%=      5-min Rain = 0
KAD1 121247Z 27006KT M03/M10 A2995 RMK A01 T10271097  RH  059%=      5-min Rain = 0
KAD1 121248Z 27006KT M03/M10 A2995 RMK A01 T10261096  RH  059%=      5-min Rain = 0
KAD1 121249Z 27006KT M02/M10 A2995 RMK A01 T10241095  RH  058%=      5-min Rain = 0
KAD1 121250Z 27006KT M02/M10 A2995 RMK A01 T10231095  RH  058%=      5-min Rain = 0
KAD1 121251Z 27006KT M02/M10 A2995 RMK A01 T10221095  RH  057%=      5-min Rain = 0
KAD1 121252Z 27007KT M02/M10 A2995 RMK A01 T10211095  RH  057%=      5-min Rain = 0
KAD1 121253Z 27007KT M02/M10 A2995 RMK A01 T10211095  RH  057%=      5-min Rain = 0
KAD1 121254Z 27007KT M02/M10 A2995 RMK A01 T10221095  RH  057%=      5-min Rain = 0
KAD1 121255Z 27007KT M02/M10 A2995 RMK A01 T10231095  RH  058%=      5-min Rain = 0
KAD1 121256Z 27007KT M02/M10 A2995 RMK A01 T10231095  RH  058%=      5-min Rain = 0
KAD1 121257Z 27007KT M02/M10 A2994 RMK A01 T10241095  RH  058%=      5-min Rain = 0
KAD1 121258Z 27007KT M02/M10 A2994 RMK A01 T10241095  RH  058%=      5-min Rain = 0
KAD1 121259Z 27007KT M03/M10 A2994 RMK A01 T10251095  RH  058%=      5-min Rain = 0
KAD1 121300Z 27007KT M03/M10 A2994 RMK A01 T10251095  RH  059%=      5-min Rain = 0
KAD1 121301Z 26007KT M03/M10 A2994 RMK A01 T10251095  RH  059%=      5-min Rain = 0
KAD1 121302Z 26007KT M03/M09 A2994 RMK A01 T10251094  RH  059%=      5-min Rain = 0
KAD1 121303Z 26007KT M03/M10 A2994 RMK A01 T10251095  RH  059%=      5-min Rain = 0
KAD1 121304Z 26007KT M03/M10 A2994 RMK A01 T10261095  RH  059%=      5-min Rain = 0
KAD1 121305Z 26008KT M03/M10 A2994 RMK A01 T10261095  RH  059%=      5-min Rain = 0
KAD1 121306Z 26008KT M03/M09 A2994 RMK A01 T10251094  RH  059%=      5-min Rain = 0
KAD1 121307Z 26008KT M02/M09 A2994 RMK A01 T10231094  RH  059%=      5-min Rain = 0
KAD1 121308Z 26008KT M02/M09 A2994 RMK A01 T10231094  RH  058%=      5-min Rain = 0
KAD1 121309Z 26009KT M02/M09 A2994 RMK A01 T10211093  RH  058%=      5-min Rain = 0
KAD1 121310Z 26009KT M02/M09 A2994 RMK A01 T10211093  RH  058%=      5-min Rain = 0
KAD1 121311Z 26010KT M02/M09 A2994 RMK A01 T10201092  RH  058%=      5-min Rain = 0
KAD1 121312Z 26010KT M02/M09 A2994 RMK A01 T10191092  RH  058%=      5-min Rain = 0
KAD1 121313Z 26010KT M02/M09 A2994 RMK A01 T10181092  RH  057%=      5-min Rain = 0
KAD1 121314Z 26010KT M02/M09 A2994 RMK A01 T10181092  RH  057%=      5-min Rain = 0
KAD1 121315Z 26010KT M02/M09 A2994 RMK A01 T10181093  RH  057%=      5-min Rain = 0
KAD1 121316Z 25010KT M02/M09 A2995 RMK A01 T10181093  RH  057%=      5-min Rain = 0
KAD1 121317Z 26010KT M02/M09 A2995 RMK A01 T10191094  RH  057%=      5-min Rain = 0
KAD1 121318Z 26010KT M02/M09 A2995 RMK A01 T10201094  RH  057%=      5-min Rain = 0
KAD1 121319Z 26010KT M02/M09 A2995 RMK A01 T10211094  RH  057%=      5-min Rain = 0
KAD1 121320Z 26010KT M02/M09 A2995 RMK A01 T10211094  RH  057%=      5-min Rain = 0
KAD1 121321Z 26009KT M02/M09 A2995 RMK A01 T10211094  RH  057%=      5-min Rain = 0
KAD1 121322Z 26009KT M02/M10 A2995 RMK A01 T10231095  RH  058%=      5-min Rain = 0
KAD1 121323Z 26009KT M02/M09 A2995 RMK A01 T10231094  RH  058%=      5-min Rain = 0
KAD1 121324Z 26009KT M02/M09 A2995 RMK A01 T10241094  RH  058%=      5-min Rain = 0
KAD1 121325Z 26009KT M03/M09 A2995 RMK A01 T10251094  RH  059%=      5-min Rain = 0
KAD1 121326Z 26010KT M03/M09 A2995 RMK A01 T10251094  RH  059%=      5-min Rain = 0
KAD1 121327Z 26009KT M03/M09 A2995 RMK A01 T10251094  RH  059%=      5-min Rain = 0
KAD1 121328Z 26010KT M03/M09 A2995 RMK A01 T10251093  RH  059%=      5-min Rain = 0
KAD1 121329Z 26009KT M03/M09 A2995 RMK A01 T10251094  RH  059%=      5-min Rain = 0
KAD1 121330Z 26009KT M02/M09 A2995 RMK A01 T10241094  RH  059%=      5-min Rain = 0
KAD1 121331Z 26009KT M02/M09 A2994 RMK A01 T10231093  RH  058%=      5-min Rain = 0
KAD1 121332Z 26009KT M02/M09 A2994 RMK A01 T10211093  RH  058%=      5-min Rain = 0
KAD1 121333Z 26009KT M02/M09 A2994 RMK A01 T10211094  RH  057%=      5-min Rain = 0
KAD1 121334Z 26008KT M02/M09 A2994 RMK A01 T10201094  RH  057%=      5-min Rain = 0
KAD1 121335Z 26008KT M02/M09 A2994 RMK A01 T10191094  RH  057%=      5-min Rain = 0
KAD1 121336Z 26008KT M02/M09 A2994 RMK A01 T10181094  RH  056%=      5-min Rain = 0
KAD1 121337Z 26007KT M02/M09 A2994 RMK A01 T10181094  RH  056%=      5-min Rain = 0
KAD1 121338Z 27008KT M02/M09 A2995 RMK A01 T10171094  RH  056%=      5-min Rain = 0
KAD1 121339Z 27008KT M02/M09 A2995 RMK A01 T10171094  RH  055%=      5-min Rain = 0
KAD1 121340Z 26007KT M02/M09 A2994 RMK A01 T10151094  RH  055%=      5-min Rain = 0
KAD1 121341Z 26007KT M02/M09 A2994 RMK A01 T10151094  RH  055%=      5-min Rain = 0
KAD1 121342Z 26007KT M01/M09 A2994 RMK A01 T10141094  RH  054%=      5-min Rain = 0
KAD1 121343Z 25008KT M01/M09 A2994 RMK A01 T10121094  RH  054%=      5-min Rain = 0
KAD1 121344Z 26007KT M01/M09 A2994 RMK A01 T10111094  RH  053%=      5-min Rain = 0
KAD1 121345Z 26007KT M01/M09 A2994 RMK A01 T10111094  RH  053%=      5-min Rain = 0
KAD1 121346Z 26007KT M01/M10 A2994 RMK A01 T10121095  RH  053%=      5-min Rain = 0
KAD1 121347Z 26007KT M01/M10 A2994 RMK A01 T10131095  RH  054%=      5-min Rain = 0
KAD1 121348Z 26006KT M01/M10 A2994 RMK A01 T10131095  RH  053%=      5-min Rain = 0
KAD1 121349Z 26006KT M01/M10 A2994 RMK A01 T10131096  RH  054%=      5-min Rain = 0
KAD1 121350Z 26006KT M01/M10 A2994 RMK A01 T10141096  RH  054%=      5-min Rain = 0
KAD1 121351Z 26006KT M01/M10 A2994 RMK A01 T10141095  RH  054%=      5-min Rain = 0
KAD1 121352Z 26006KT M01/M10 A2994 RMK A01 T10141095  RH  054%=      5-min Rain = 0
KAD1 121353Z 25005KT M01/M10 A2994 RMK A01 T10141095  RH  054%=      5-min Rain = 0
KAD1 121354Z 24005KT M02/M10 A2994 RMK A01 T10161096  RH  055%=      5-min Rain = 0
KAD1 121355Z 24004KT M02/M10 A2994 RMK A01 T10171096  RH  055%=      5-min Rain = 0
KAD1 121356Z 24004KT M02/M10 A2994 RMK A01 T10191097  RH  055%=      5-min Rain = 0
KAD1 121357Z 23003KT M02/M10 A2994 RMK A01 T10201097  RH  056%=      5-min Rain = 0
KAD1 121358Z 24003KT M02/M10 A2994 RMK A01 T10221097  RH  056%=      5-min Rain = 0
KAD1 121359Z 24004KT M02/M10 A2994 RMK A01 T10231097  RH  057%=      5-min Rain = 0
KAD1 121400Z 25005KT M02/M10 A2994 RMK A01 T10241097  RH  058%=      5-min Rain = 0
KAD1 121401Z 24007KT M03/M10 A2994 RMK A01 T10261096  RH  058%=      5-min Rain = 0
KAD1 121402Z 24007KT M03/M09 A2993 RMK A01 T10261094  RH  059%=      5-min Rain = 0
KAD1 121403Z 24008KT M03/M09 A2993 RMK A01 T10251093  RH  060%=      5-min Rain = 0
KAD1 121404Z 24008KT M03/M09 A2993 RMK A01 T10251092  RH  060%=      5-min Rain = 0
KAD1 121405Z 24009KT M02/M09 A2993 RMK A01 T10241092  RH  060%=      5-min Rain = 0
KAD1 121406Z 24010KT M02/M09 A2993 RMK A01 T10221091  RH  059%=      5-min Rain = 0
KAD1 121407Z 24011KT M02/M09 A2993 RMK A01 T10201090  RH  059%=      5-min Rain = 0
KAD1 121408Z 24010KT M02/M09 A2993 RMK A01 T10181090  RH  058%=      5-min Rain = 0
KAD1 121409Z 24010KT M02/M09 A2993 RMK A01 T10181090  RH  058%=      5-min Rain = 0
KAD1 121410Z 24010KT M02/M09 A2993 RMK A01 T10181090  RH  058%=      5-min Rain = 0
KAD1 121411Z 24009KT M02/M09 A2993 RMK A01 T10181090  RH  058%=      5-min Rain = 0
KAD1 121412Z 24010KT M02/M09 A2993 RMK A01 T10181090  RH  058%=      5-min Rain = 0
KAD1 121413Z 24011KT M02/M09 A2993 RMK A01 T10171090  RH  058%=      5-min Rain = 0
KAD1 121414Z 24012KT M02/M09 A2993 RMK A01 T10161089  RH  057%=      5-min Rain = 0
KAD1 121415Z 24013KT M01/M09 A2993 RMK A01 T10141089  RH  057%=      5-min Rain = 0
KAD1 121416Z 24013KT M01/M09 A2993 RMK A01 T10111089  RH  056%=      5-min Rain = 0
KAD1 121417Z 24012KT M01/M09 A2993 RMK A01 T10101089  RH  055%=      5-min Rain = 0
KAD1 121418Z 24013KT M01/M09 A2993 RMK A01 T10101089  RH  055%=      5-min Rain = 0
KAD1 121419Z 24012KT M01/M09 A2993 RMK A01 T10111089  RH  055%=      5-min Rain = 0
KAD1 121420Z 24011KT M01/M09 A2993 RMK A01 T10101090  RH  055%=      5-min Rain = 0
KAD1 121421Z 24011KT M01/M09 A2993 RMK A01 T10091089  RH  054%=      5-min Rain = 0
KAD1 121422Z 24011KT M01/M09 A2993 RMK A01 T10091089  RH  054%=      5-min Rain = 0
KAD1 121423Z 24010KT M01/M09 A2993 RMK A01 T10081090  RH  054%=      5-min Rain = 0
KAD1 121424Z 24009KT M01/M09 A2992 RMK A01 T10081090  RH  054%=      5-min Rain = 0
KAD1 121425Z 24008KT M01/M09 A2992 RMK A01 T10071089  RH  053%=      5-min Rain = 0
KAD1 121426Z 24008KT M01/M09 A2992 RMK A01 T10071089  RH  054%=      5-min Rain = 0
KAD1 121427Z 25008KT M01/M09 A2992 RMK A01 T10061089  RH  054%=      5-min Rain = 0
KAD1 121428Z 25008KT M01/M09 A2992 RMK A01 T10061088  RH  054%=      5-min Rain = 0
KAD1 121429Z 25008KT M01/M09 A2992 RMK A01 T10051088  RH  053%=      5-min Rain = 0
KAD1 121430Z 25007KT M00/M09 A2992 RMK A01 T10041088  RH  053%=      5-min Rain = 0
KAD1 121431Z 25007KT M00/M09 A2992 RMK A01 T10041088  RH  053%=      5-min Rain = 0
KAD1 121432Z 25007KT M00/M09 A2992 RMK A01 T10021088  RH  052%=      5-min Rain = 0
KAD1 121433Z 25008KT M00/M09 A2992 RMK A01 T10011089  RH  052%=      5-min Rain = 0
KAD1 121434Z 24008KT 00/09 A2992 RMK A01 T00-00-89  RH  051%=      5-min Rain = 0
KAD1 121435Z 24007KT 00/M09 A2992 RMK A01 T00011088  RH  051%=      5-min Rain = 0
KAD1 121436Z 24007KT 00/M09 A2992 RMK A01 T00011088  RH  051%=      5-min Rain = 0
KAD1 121437Z 24007KT 00/M09 A2992 RMK A01 T00021087  RH  051%=      5-min Rain = 0
KAD1 121438Z 25007KT 00/M09 A2992 RMK A01 T00041087  RH  051%=      5-min Rain = 0
KAD1 121439Z 25007KT 01/M09 A2992 RMK A01 T00051086  RH  050%=      5-min Rain = 0
KAD1 121440Z 25007KT 01/M09 A2992 RMK A01 T00061086  RH  050%=      5-min Rain = 0
KAD1 121441Z 25007KT 01/M09 A2992 RMK A01 T00071088  RH  049%=      5-min Rain = 0
KAD1 121442Z 25007KT 01/M09 A2992 RMK A01 T00081087  RH  049%=      5-min Rain = 0
KAD1 121443Z 25007KT 01/M09 A2992 RMK A01 T00081088  RH  049%=      5-min Rain = 0
KAD1 121444Z 25008KT 01/M09 A2992 RMK A01 T00091087  RH  049%=      5-min Rain = 0
KAD1 121445Z 24008KT 01/M09 A2992 RMK A01 T00091087  RH  049%=      5-min Rain = 0
KAD1 121446Z 24009KT 01/M09 A2992 RMK A01 T00101088  RH  048%=      5-min Rain = 0
KAD1 121447Z 24008KT 01/M09 A2992 RMK A01 T00111088  RH  048%=      5-min Rain = 0
KAD1 121448Z 24008KT 01/M09 A2992 RMK A01 T00121087  RH  048%=      5-min Rain = 0
KAD1 121449Z 24008KT 01/M09 A2992 RMK A01 T00121087  RH  048%=      5-min Rain = 0
KAD1 121450Z 24009KT 01/M09 A2992 RMK A01 T00121088  RH  047%=      5-min Rain = 0
KAD1 121451Z 24008KT 01/M09 A2992 RMK A01 T00131087  RH  047%=      5-min Rain = 0
KAD1 121452Z 24008KT 01/M09 A2992 RMK A01 T00131086  RH  048%=      5-min Rain = 0
KAD1 121453Z 24008KT 01/M09 A2992 RMK A01 T00131086  RH  047%=      5-min Rain = 0
KAD1 121454Z 25009KT 01/M09 A2992 RMK A01 T00141085  RH  048%=      5-min Rain = 0
KAD1 121455Z 24007KT 02/M09 A2992 RMK A01 T00151085  RH  048%=      5-min Rain = 0
KAD1 121456Z 24008KT 02/M09 A2992 RMK A01 T00151085  RH  047%=      5-min Rain = 0
KAD1 121457Z 24008KT 02/M08 A2992 RMK A01 T00161083  RH  048%=      5-min Rain = 0
KAD1 121458Z 24008KT 02/M08 A2992 RMK A01 T00171083  RH  047%=      5-min Rain = 0
KAD1 121459Z 24009KT 02/M08 A2992 RMK A01 T00181083  RH  047%=      5-min Rain = 0
KAD1 121500Z 24008KT 02/M08 A2992 RMK A01 T00181084  RH  047%=      5-min Rain = 0
KAD1 121501Z 24008KT 02/M08 A2992 RMK A01 T00191082  RH  047%=      5-min Rain = 0
KAD1 121502Z 24008KT 02/M08 A2992 RMK A01 T00191082  RH  047%=      5-min Rain = 0
KAD1 121503Z 24008KT 02/M08 A2992 RMK A01 T00201082  RH  047%=      5-min Rain = 0
KAD1 121504Z 24008KT 02/M08 A2992 RMK A01 T00211083  RH  046%=      5-min Rain = 0
KAD1 121505Z 24007KT 02/M08 A2991 RMK A01 T00221083  RH  046%=      5-min Rain = 0
KAD1 121506Z 24007KT 02/M08 A2991 RMK A01 T00221083  RH  046%=      5-min Rain = 0
KAD1 121507Z 24007KT 02/M08 A2991 RMK A01 T00231083  RH  045%=      5-min Rain = 0
KAD1 121508Z 24006KT 02/M08 A2991 RMK A01 T00241082  RH  046%=      5-min Rain = 0
KAD1 121509Z 23005KT 03/M08 A2991 RMK A01 T00251079  RH  046%=      5-min Rain = 0
KAD1 121510Z 23005KT 03/M08 A2991 RMK A01 T00281077  RH  046%=      5-min Rain = 0
KAD1 121511Z 23006KT 03/M08 A2991 RMK A01 T00301077  RH  045%=      5-min Rain = 0
KAD1 121512Z 23007KT 03/M08 A2991 RMK A01 T00321079  RH  044%=      5-min Rain = 0
KAD1 121513Z 23007KT 03/M08 A2991 RMK A01 T00331081  RH  043%=      5-min Rain = 0
KAD1 121514Z 23007KT 04/M08 A2991 RMK A01 T00351083  RH  042%=      5-min Rain = 0
KAD1 121515Z 23007KT 04/M08 A2991 RMK A01 T00371082  RH  042%=      5-min Rain = 0
KAD1 121516Z 23008KT 04/M08 A2991 RMK A01 T00391083  RH  041%=      5-min Rain = 0
KAD1 121517Z 22007KT 04/M08 A2991 RMK A01 T00411084  RH  040%=      5-min Rain = 0
KAD1 121518Z 22007KT 04/M08 A2991 RMK A01 T00431083  RH  040%=      5-min Rain = 0
KAD1 121519Z 22006KT 04/M08 A2991 RMK A01 T00441082  RH  039%=      5-min Rain = 0
KAD1 121520Z 23008KT 05/M08 A2991 RMK A01 T00461081  RH  039%=      5-min Rain = 0
KAD1 121521Z 22008KT 05/M08 A2991 RMK A01 T00481082  RH  038%=      5-min Rain = 0
KAD1 121522Z 22007KT 05/M08 A2991 RMK A01 T00481084  RH  038%=      5-min Rain = 0
KAD1 121523Z 22006KT 05/M08 A2991 RMK A01 T00491082  RH  038%=      5-min Rain = 0
KAD1 121524Z 22007KT 05/M08 A2991 RMK A01 T00501082  RH  038%=      5-min Rain = 0
KAD1 121525Z 22007KT 05/M08 A2991 RMK A01 T00511082  RH  038%=      5-min Rain = 0
KAD1 121526Z 22007KT 05/M08 A2991 RMK A01 T00521082  RH  037%=      5-min Rain = 0
KAD1 121527Z 22007KT 05/M08 A2991 RMK A01 T00531082  RH  037%=      5-min Rain = 0
KAD1 121528Z 22007KT 05/M08 A2991 RMK A01 T00531082  RH  037%=      5-min Rain = 0
KAD1 121529Z 22007KT 05/M08 A2991 RMK A01 T00541082  RH  037%=      5-min Rain = 0
KAD1 121530Z 22008KT 06/M08 A2991 RMK A01 T00561081  RH  037%=      5-min Rain = 0
KAD1 121531Z 22007KT 06/M08 A2991 RMK A01 T00561081  RH  037%=      5-min Rain = 0
KAD1 121532Z 22008KT 06/M08 A2991 RMK A01 T00571079  RH  037%=      5-min Rain = 0
KAD1 121533Z 22009KT 06/M08 A2991 RMK A01 T00581080  RH  036%=      5-min Rain = 0
KAD1 121534Z 22009KT 06/M08 A2991 RMK A01 T00591082  RH  036%=      5-min Rain = 0
KAD1 121535Z 23009KT 06/M08 A2991 RMK A01 T00581083  RH  035%=      5-min Rain = 0
KAD1 121536Z 23009KT 06/M08 A2991 RMK A01 T00581082  RH  036%=      5-min Rain = 0
KAD1 121537Z 23009KT 06/M08 A2991 RMK A01 T00581082  RH  036%=      5-min Rain = 0
KAD1 121538Z 23009KT 06/M08 A2991 RMK A01 T00581082  RH  036%=      5-min Rain = 0
KAD1 121539Z 23008KT 06/M08 A2991 RMK A01 T00581080  RH  036%=      5-min Rain = 0
KAD1 121540Z 23010KT 06/M08 A2991 RMK A01 T00601079  RH  036%=      5-min Rain = 0
KAD1 121541Z 23009KT 06/M08 A2991 RMK A01 T00601079  RH  036%=      5-min Rain = 0
KAD1 121542Z 23009KT 06/M08 A2991 RMK A01 T00621078  RH  036%=      5-min Rain = 0
KAD1 121543Z 23008KT 06/M08 A2991 RMK A01 T00641076  RH  036%=      5-min Rain = 0
KAD1 121544Z 23009KT 07/M08 A2991 RMK A01 T00661076  RH  035%=      5-min Rain = 0
KAD1 121545Z 23008KT 07/M08 A2991 RMK A01 T00671077  RH  035%=      5-min Rain = 0
KAD1 121546Z 23009KT 07/M08 A2991 RMK A01 T00681076  RH  035%=      5-min Rain = 0
KAD1 121547Z 23010KT 07/M08 A2991 RMK A01 T00701077  RH  034%=      5-min Rain = 0
KAD1 121548Z 23007KT 07/M08 A2991 RMK A01 T00701077  RH  034%=      5-min Rain = 0
KAD1 121549Z 22010KT 07/M08 A2991 RMK A01 T00721075  RH  034%=      5-min Rain = 0
KAD1 121550Z 23009KT 07/M08 A2991 RMK A01 T00731078  RH  033%=      5-min Rain = 0
KAD1 121551Z 22009KT 07/M08 A2991 RMK A01 T00721079  RH  033%=      5-min Rain = 0
KAD1 121552Z 23008KT 07/M08 A2991 RMK A01 T00721078  RH  034%=      5-min Rain = 0
KAD1 121553Z 24008KT 07/M08 A2991 RMK A01 T00731076  RH  034%=      5-min Rain = 0
KAD1 121554Z 24008KT 08/M08 A2991 RMK A01 T00761075  RH  034%=      5-min Rain = 0
KAD1 121555Z 23010KT 08/M08 A2991 RMK A01 T00781077  RH  033%=      5-min Rain = 0
KAD1 121556Z 23011KT 08/M08 A2991 RMK A01 T00771080  RH  032%=      5-min Rain = 0
KAD1 121557Z 23012KT 08/M08 A2991 RMK A01 T00771081  RH  032%=      5-min Rain = 0
KAD1 121558Z 24011KT 08/M08 A2991 RMK A01 T00771080  RH  032%=      5-min Rain = 0
KAD1 121559Z 24010KT 08/M08 A2991 RMK A01 T00771080  RH  032%=      5-min Rain = 0
KAD1 121600Z 23009KT 08/M08 A2991 RMK A01 T00781078  RH  032%=      5-min Rain = 0
KAD1 121601Z 24012KT 08/M08 A2991 RMK A01 T00791078  RH  032%=      5-min Rain = 0
KAD1 121602Z 23012KT 08/M08 A2991 RMK A01 T00791079  RH  032%=      5-min Rain = 0
KAD1 121603Z 24009KT 08/M08 A299 RMK A01 T00781079  RH  032%=      5-min Rain = 0
KAD1 121604Z 24009KT 08/M08 A299 RMK A01 T00801075  RH  033%=      5-min Rain = 0
KAD1 121605Z 24010KT 08/M08 A299 RMK A01 T00821076  RH  032%=      5-min Rain = 0
KAD1 121606Z 25012KT 08/M08 A299 RMK A01 T00821078  RH  031%=      5-min Rain = 0
KAD1 121607Z 24010KT 08/M08 A299 RMK A01 T00821078  RH  031%=      5-min Rain = 0
KAD1 121608Z 24012KT 08/M08 A299 RMK A01 T00821078  RH  031%=      5-min Rain = 0
KAD1 121609Z 23011KT 08/M08 A299 RMK A01 T00821078  RH  031%=      5-min Rain = 0
KAD1 121610Z 23010KT 08/M08 A299 RMK A01 T00831078  RH  031%=      5-min Rain = 0
KAD1 121611Z 23010KT 08/M08 A299 RMK A01 T00831077  RH  031%=      5-min Rain = 0
KAD1 121612Z 25009KT 09/M08 A299 RMK A01 T00851075  RH  032%=      5-min Rain = 0
KAD1 121613Z 25011KT 09/M08 A299 RMK A01 T00861077  RH  031%=      5-min Rain = 0
KAD1 121614Z 25010KT 09/M08 A299 RMK A01 T00861078  RH  031%=      5-min Rain = 0
KAD1 121615Z 26010KT 09/M08 A299 RMK A01 T00871075  RH  031%=      5-min Rain = 0
KAD1 121616Z 26011KT 09/M08 A299 RMK A01 T00881076  RH  031%=      5-min Rain = 0
KAD1 121617Z 25011KT 09/M08 A299 RMK A01 T00881080  RH  030%=      5-min Rain = 0
KAD1 121618Z 24012KT 09/M08 A299 RMK A01 T00871079  RH  030%=      5-min Rain = 0
KAD1 121619Z 24010KT 09/M08 A299 RMK A01 T00881080  RH  030%=      5-min Rain = 0
KAD1 121620Z 24010KT 09/M08 A299 RMK A01 T00871080  RH  030%=      5-min Rain = 0
KAD1 121621Z 25010KT 09/M08 A299 RMK A01 T00871080  RH  030%=      5-min Rain = 0
KAD1 121622Z 26010KT 09/M08 A299 RMK A01 T00881078  RH  030%=      5-min Rain = 0
KAD1 121623Z 26012KT 09/M08 A299 RMK A01 T00891078  RH  030%=      5-min Rain = 0
KAD1 121624Z 26011KT 09/M08 A299 RMK A01 T00891078  RH  030%=      5-min Rain = 0
KAD1 121625Z 26010KT 09/M08 A299 RMK A01 T00901077  RH  030%=      5-min Rain = 0
KAD1 121626Z 25010KT 09/M08 A299 RMK A01 T00921076  RH  030%=      5-min Rain = 0
KAD1 121627Z 26010KT 09/M08 A299 RMK A01 T00921078  RH  029%=      5-min Rain = 0
KAD1 121628Z 25010KT 09/M08 A299 RMK A01 T00911077  RH  030%=      5-min Rain = 0
KAD1 121629Z 25010KT 09/M08 A299 RMK A01 T00901076  RH  030%=      5-min Rain = 0
KAD1 121630Z 25010KT 09/M08 A299 RMK A01 T00911075  RH  030%=      5-min Rain = 0
KAD1 121631Z 25011KT 09/M07 A299 RMK A01 T00931074  RH  030%=      5-min Rain = 0
KAD1 121632Z 25011KT 09/M08 A299 RMK A01 T00911078  RH  030%=      5-min Rain = 0
KAD1 121633Z 26008KT 09/M08 A299 RMK A01 T00901076  RH  030%=      5-min Rain = 0
KAD1 121634Z 25011KT 09/M07 A299 RMK A01 T00921074  RH  030%=      5-min Rain = 0
KAD1 121635Z 25011KT 09/M08 A299 RMK A01 T00911076  RH  030%=      5-min Rain = 0
KAD1 121636Z 25007KT 09/M07 A299 RMK A01 T00921074  RH  030%=      5-min Rain = 0
KAD1 121637Z 24010KT 09/M07 A299 RMK A01 T00941071  RH  031%=      5-min Rain = 0
KAD1 121638Z 25011KT 10/M07 A299 RMK A01 T00951073  RH  030%=      5-min Rain = 0
KAD1 121639Z 25010KT 09/M07 A299 RMK A01 T00941074  RH  030%=      5-min Rain = 0
KAD1 121640Z 26010KT 09/M07 A299 RMK A01 T00941073  RH  030%=      5-min Rain = 0
KAD1 121641Z 26012KT 09/M08 A299 RMK A01 T00941075  RH  029%=      5-min Rain = 0
KAD1 121642Z 25013KT 09/M08 A299 RMK A01 T00941076  RH  029%=      5-min Rain = 0
KAD1 121643Z 24011KT 09/M08 A299 RMK A01 T00941076  RH  029%=      5-min Rain = 0
KAD1 121644Z 24011KT 09/M08 A299 RMK A01 T00941075  RH  030%=      5-min Rain = 0
KAD1 121645Z 23013KT 09/M08 A299 RMK A01 T00941076  RH  029%=      5-min Rain = 0
KAD1 121646Z 24012KT 09/M08 A299 RMK A01 T00931075  RH  030%=      5-min Rain = 0
KAD1 121647Z 24010KT 09/M07 A299 RMK A01 T00941074  RH  030%=      5-min Rain = 0
KAD1 121648Z 25010KT 09/M07 A2989 RMK A01 T00941074  RH  030%=      5-min Rain = 0
KAD1 121649Z 24011KT 10/M07 A2989 RMK A01 T00951074  RH  030%=      5-min Rain = 0
KAD1 121650Z 25011KT 10/M08 A2989 RMK A01 T00951075  RH  029%=      5-min Rain = 0
KAD1 121651Z 26012KT 10/M07 A2989 RMK A01 T00961074  RH  030%=      5-min Rain = 0
KAD1 121652Z 25012KT 10/M07 A2989 RMK A01 T00971073  RH  029%=      5-min Rain = 0
KAD1 121653Z 24015KT 10/M07 A2989 RMK A01 T00991073  RH  029%=      5-min Rain = 0
KAD1 121654Z 24011KT 10/M07 A2989 RMK A01 T01001074  RH  029%=      5-min Rain = 0
KAD1 121655Z 24012KT 10/M07 A2989 RMK A01 T01001073  RH  029%=      5-min Rain = 0
KAD1 121656Z 25014KT 10/M07 A2989 RMK A01 T01021072  RH  029%=      5-min Rain = 0
KAD1 121657Z 25014KT 10/M08 A2989 RMK A01 T00991076  RH  028%=      5-min Rain = 0
KAD1 121658Z 25014KT 10/M08 A2989 RMK A01 T00981075  RH  029%=      5-min Rain = 0
KAD1 121659Z 25012KT 10/M07 A2989 RMK A01 T00981074  RH  029%=      5-min Rain = 0
KAD1 121700Z 26014KT 10/M07 A2989 RMK A01 T01001073  RH  029%=      5-min Rain = 0
KAD1 121701Z 25013KT 10/M07 A2989 RMK A01 T01001072  RH  029%=      5-min Rain = 0
KAD1 121702Z 25012KT 10/M07 A2989 RMK A01 T01021072  RH  029%=      5-min Rain = 0
KAD1 121703Z 26011KT 10/M07 A2989 RMK A01 T01021072  RH  029%=      5-min Rain = 0
KAD1 121704Z 26011KT 10/M07 A2988 RMK A01 T01011072  RH  029%=      5-min Rain = 0
KAD1 121705Z 26014KT 10/M07 A2988 RMK A01 T01021070  RH  029%=      5-min Rain = 0
KAD1 121706Z 26012KT 10/M07 A2988 RMK A01 T01031071  RH  029%=      5-min Rain = 0
KAD1 121707Z 26012KT 10/M07 A2988 RMK A01 T01031070  RH  029%=      5-min Rain = 0
KAD1 121708Z 26012KT 10/M07 A2988 RMK A01 T01041069  RH  029%=      5-min Rain = 0
KAD1 121709Z 25015KT 10/M07 A2988 RMK A01 T01041070  RH  029%=      5-min Rain = 0
KAD1 121710Z 25014KT 10/M07 A2988 RMK A01 T01021072  RH  029%=      5-min Rain = 0
KAD1 121711Z 25012KT 10/M07 A2988 RMK A01 T01021070  RH  029%=      5-min Rain = 0
KAD1 121712Z 25012KT 10/M07 A2988 RMK A01 T01031069  RH  029%=      5-min Rain = 0
KAD1 121713Z 24013KT 10/M07 A2988 RMK A01 T01031069  RH  029%=      5-min Rain = 0
KAD1 121714Z 24014KT 10/M07 A2988 RMK A01 T01041067  RH  029%=      5-min Rain = 0
KAD1 121715Z 25014KT 11/M07 A2988 RMK A01 T01051067  RH  029%=      5-min Rain = 0
KAD1 121716Z 25014KT 11/M07 A2988 RMK A01 T01051067  RH  029%=      5-min Rain = 0
KAD1 121717Z 26014KT 10/M07 A2987 RMK A01 T01031069  RH  029%=      5-min Rain = 0
KAD1 121718Z 25013KT 10/M07 A2987 RMK A01 T01031067  RH  029%=      5-min Rain = 0
KAD1 121719Z 25012KT 10/M07 A2987 RMK A01 T01041065  RH  030%=      5-min Rain = 0
KAD1 121720Z 25011KT 11/M07 A2987 RMK A01 T01071065  RH  029%=      5-min Rain = 0
KAD1 121721Z 26015KT 11/M07 A2987 RMK A01 T01071065  RH  029%=      5-min Rain = 0
KAD1 121722Z 26013KT 11/M07 A2987 RMK A01 T01071065  RH  029%=      5-min Rain = 0
KAD1 121723Z 26015KT 11/M06 A2987 RMK A01 T01071064  RH  029%=      5-min Rain = 0
KAD1 121724Z 26014KT 11/M06 A2987 RMK A01 T01071064  RH  029%=      5-min Rain = 0
KAD1 121725Z 26014KT 11/M06 A2987 RMK A01 T01071064  RH  030%=      5-min Rain = 0
KAD1 121726Z 26016KT 11/M06 A2987 RMK A01 T01071064  RH  029%=      5-min Rain = 0
KAD1 121727Z 25014KT 11/M06 A2987 RMK A01 T01071064  RH  029%=      5-min Rain = 0
KAD1 121728Z 26014KT 11/M06 A2987 RMK A01 T01071064  RH  030%=      5-min Rain = 0
KAD1 121729Z 27012KT 11/M06 A2986 RMK A01 T01071064  RH  029%=      5-min Rain = 0
KAD1 121730Z 25010KT 11/M06 A2986 RMK A01 T01081062  RH  030%=      5-min Rain = 0
KAD1 121731Z 25012G17KT 11/M06 A2986 RMK A01 T01111061  RH  029%=      5-min Rain = 0
KAD1 121732Z 25013KT 11/M06 A2986 RMK A01 T01131060  RH  029%=      5-min Rain = 0
KAD1 121733Z 26013KT 11/M06 A2986 RMK A01 T01131061  RH  029%=      5-min Rain = 0
KAD1 121734Z 26014KT 11/M06 A2986 RMK A01 T01121062  RH  029%=      5-min Rain = 0
KAD1 121735Z 26014KT 11/M06 A2986 RMK A01 T01121061  RH  029%=      5-min Rain = 0
KAD1 121736Z 26013KT 11/M06 A2986 RMK A01 T01131060  RH  029%=      5-min Rain = 0
KAD1 121737Z 26013KT 11/M06 A2986 RMK A01 T01121061  RH  029%=      5-min Rain = 0
KAD1 121738Z 25012KT 11/M06 A2986 RMK A01 T01131059  RH  029%=      5-min Rain = 0
KAD1 121739Z 25013G18KT 12/M06 A2985 RMK A01 T01161058  RH  029%=      5-min Rain = 0
KAD1 121740Z 26014KT 12/M06 A2985 RMK A01 T01151060  RH  029%=      5-min Rain = 0
KAD1 121741Z 27013KT 11/M06 A2985 RMK A01 T01141060  RH  029%=      5-min Rain = 0
KAD1 121742Z 25014KT 11/M06 A2985 RMK A01 T01131059  RH  029%=      5-min Rain = 0
KAD1 121743Z 25015KT 11/M06 A2985 RMK A01 T01141060  RH  029%=      5-min Rain = 0
KAD1 121744Z 25016KT 11/M06 A2985 RMK A01 T01141060  RH  029%=      5-min Rain = 0
KAD1 121745Z 25017KT 11/M06 A2985 RMK A01 T01131061  RH  029%=      5-min Rain = 0
KAD1 121746Z 25016KT 11/M06 A2985 RMK A01 T01121061  RH  029%=      5-min Rain = 0
KAD1 121747Z 25014KT 11/M06 A2985 RMK A01 T01121061  RH  029%=      5-min Rain = 0
KAD1 121748Z 25014KT 11/M06 A2985 RMK A01 T01121061  RH  029%=      5-min Rain = 0
KAD1 121749Z 26014KT 11/M06 A2985 RMK A01 T01121061  RH  029%=      5-min Rain = 0
KAD1 121750Z 25013KT 11/M06 A2985 RMK A01 T01131059  RH  029%=      5-min Rain = 0
KAD1 121751Z 25013KT 12/M06 A2984 RMK A01 T01161059  RH  029%=      5-min Rain = 0
KAD1 121752Z 25011G17KT 12/M06 A2984 RMK A01 T01181057  RH  029%=      5-min Rain = 0
KAD1 121753Z 25015KT 12/M06 A2984 RMK A01 T01201059  RH  028%=      5-min Rain = 0
KAD1 121754Z 25016KT 12/M06 A2984 RMK A01 T01171061  RH  028%=      5-min Rain = 0
KAD1 121755Z 25014KT 12/M06 A2984 RMK A01 T01151061  RH  029%=      5-min Rain = 0
KAD1 121756Z 26014KT 11/M06 A2984 RMK A01 T01141061  RH  029%=      5-min Rain = 0
KAD1 121757Z 25014KT 11/M06 A2984 RMK A01 T01131062  RH  029%=      5-min Rain = 0
KAD1 121758Z 26014KT 11/M06 A2984 RMK A01 T01141060  RH  029%=      5-min Rain = 0
KAD1 121759Z 26014KT 12/M06 A2984 RMK A01 T01151060  RH  029%=      5-min Rain = 0
KAD1 121800Z 27013KT 12/M06 A2984 RMK A01 T01151060  RH  029%=      5-min Rain = 0
KAD1 121801Z 26015KT 12/M06 A2983 RMK A01 T01151059  RH  029%=      5-min Rain = 0
KAD1 121802Z 26014KT 12/M06 A2983 RMK A01 T01171059  RH  029%=      5-min Rain = 0
KAD1 121803Z 25016KT 12/M06 A2983 RMK A01 T01161062  RH  028%=      5-min Rain = 0
KAD1 121804Z 26014KT 12/M06 A2983 RMK A01 T01151061  RH  029%=      5-min Rain = 0
KAD1 121805Z 26014KT 11/M06 A2983 RMK A01 T01141062  RH  029%=      5-min Rain = 0
KAD1 121806Z 25015KT 11/M06 A2983 RMK A01 T01141061  RH  029%=      5-min Rain = 0
KAD1 121807Z 26013KT 11/M06 A2983 RMK A01 T01141062  RH  029%=      5-min Rain = 0
KAD1 121808Z 26014KT 12/M06 A2983 RMK A01 T01151060  RH  029%=      5-min Rain = 0
KAD1 121809Z 25013KT 12/M06 A2983 RMK A01 T01151061  RH  029%=      5-min Rain = 0
KAD1 121810Z 26013KT 12/M06 A2983 RMK A01 T01151061  RH  029%=      5-min Rain = 0
KAD1 121811Z 28011KT 11/M06 A2983 RMK A01 T01141061  RH  029%=      5-min Rain = 0
KAD1 121812Z 27012KT 12/M06 A2982 RMK A01 T01151061  RH  029%=      5-min Rain = 0
KAD1 121813Z 26013KT 12/M06 A2982 RMK A01 T01151060  RH  029%=      5-min Rain = 0
KAD1 121814Z 27012KT 12/M06 A2982 RMK A01 T01151061  RH  029%=      5-min Rain = 0
KAD1 121815Z 27014KT 12/M06 A2982 RMK A01 T01161059  RH  029%=      5-min Rain = 0
KAD1 121816Z 26013KT 12/M06 A2982 RMK A01 T01171058  RH  029%=      5-min Rain = 0
KAD1 121817Z 25013KT 12/M06 A2982 RMK A01 T01181059  RH  028%=      5-min Rain = 0
KAD1 121818Z 26014KT 12/M06 A2982 RMK A01 T01201058  RH  028%=      5-min Rain = 0
KAD1 121819Z 27014KT 12/M06 A2982 RMK A01 T01201058  RH  028%=      5-min Rain = 0
KAD1 121820Z 26016KT 12/M06 A2982 RMK A01 T01201058  RH  028%=      5-min Rain = 0
KAD1 121821Z 27015KT 12/M06 A2982 RMK A01 T01201057  RH  028%=      5-min Rain = 0
KAD1 121822Z 27013KT 12/M06 A2982 RMK A01 T01201057  RH  029%=      5-min Rain = 0
KAD1 121823Z 26011KT 12/M06 A2982 RMK A01 T01201056  RH  029%=      5-min Rain = 0
KAD1 121824Z 27012KT 12/M05 A2982 RMK A01 T01241053  RH  029%=      5-min Rain = 0
KAD1 121825Z 27014KT 13/M06 A2982 RMK A01 T01251055  RH  028%=      5-min Rain = 0
KAD1 121826Z 26013KT 12/M06 A2982 RMK A01 T01231056  RH  028%=      5-min Rain = 0
KAD1 121827Z 26012KT 12/M06 A2982 RMK A01 T01241055  RH  028%=      5-min Rain = 0
KAD1 121828Z 27010G15KT 13/M05 A2981 RMK A01 T01281052  RH  028%=      5-min Rain = 0
KAD1 121829Z 28014KT 13/M05 A2981 RMK A01 T01291054  RH  028%=      5-min Rain = 0
KAD1 121830Z 26014KT 13/M06 A2981 RMK A01 T01261055  RH  028%=      5-min Rain = 0
KAD1 121831Z 26015KT 13/M05 A2981 RMK A01 T01271054  RH  028%=      5-min Rain = 0
KAD1 121832Z 26015KT 13/M05 A2981 RMK A01 T01271054  RH  028%=      5-min Rain = 0
KAD1 121833Z 25013KT 13/M05 A2981 RMK A01 T01271054  RH  028%=      5-min Rain = 0
KAD1 121834Z 26013KT 13/M05 A2981 RMK A01 T01301051  RH  028%=      5-min Rain = 0
KAD1 121835Z 26015KT 13/M05 A2981 RMK A01 T01321052  RH  027%=      5-min Rain = 0
KAD1 121836Z 25016KT 13/M05 A2981 RMK A01 T01301054  RH  027%=      5-min Rain = 0
KAD1 121837Z 25017KT 13/M05 A2981 RMK A01 T01301054  RH  027%=      5-min Rain = 0
KAD1 121838Z 26015KT 13/M05 A2981 RMK A01 T01301053  RH  028%=      5-min Rain = 0
KAD1 121839Z 25016KT 13/M05 A2981 RMK A01 T01331050  RH  028%=      5-min Rain = 0
KAD1 121840Z 26017KT 13/M05 A2981 RMK A01 T01341053  RH  027%=      5-min Rain = 0
KAD1 121841Z 26015KT 13/M05 A2981 RMK A01 T01341052  RH  027%=      5-min Rain = 0
KAD1 121842Z 25015KT 14/M05 A298 RMK A01 T01351053  RH  027%=      5-min Rain = 0
KAD1 121843Z 25016KT 13/M05 A298 RMK A01 T01341053  RH  027%=      5-min Rain = 0
KAD1 121844Z 26015KT 13/M05 A298 RMK A01 T01341052  RH  027%=      5-min Rain = 0
KAD1 121845Z 25013KT 14/M05 A298 RMK A01 T01351053  RH  027%=      5-min Rain = 0
KAD1 121846Z 26016KT 14/M05 A298 RMK A01 T01351052  RH  027%=      5-min Rain = 0
KAD1 121847Z 26018KT 14/M05 A298 RMK A01 T01351053  RH  027%=      5-min Rain = 0
KAD1 121848Z 26018KT 14/M05 A298 RMK A01 T01351053  RH  027%=      5-min Rain = 0
KAD1 121849Z 26016KT 13/M05 A298 RMK A01 T01341053  RH  027%=      5-min Rain = 0
KAD1 121850Z 25015KT 13/M05 A298 RMK A01 T01341052  RH  027%=      5-min Rain = 0
KAD1 121851Z 25017KT 14/M05 A298 RMK A01 T01361051  RH  027%=      5-min Rain = 0
KAD1 121852Z 25015KT 14/M05 A298 RMK A01 T01371051  RH  027%=      5-min Rain = 0
KAD1 121853Z 26016KT 14/M05 A2979 RMK A01 T01371051  RH  027%=      5-min Rain = 0
KAD1 121854Z 26017KT 14/M05 A2979 RMK A01 T01371052  RH  027%=      5-min Rain = 0
KAD1 121855Z 25015KT 14/M05 A2979 RMK A01 T01361053  RH  026%=      5-min Rain = 0
KAD1 121856Z 25013KT 14/M05 A2979 RMK A01 T01351052  RH  027%=      5-min Rain = 0
KAD1 121857Z 26014KT 14/M05 A2979 RMK A01 T01361051  RH  027%=      5-min Rain = 0
KAD1 121858Z 26018KT 14/M05 A2979 RMK A01 T01381050  RH  027%=      5-min Rain = 0
KAD1 121859Z 26017KT 14/M05 A2979 RMK A01 T01391050  RH  026%=      5-min Rain = 0
KAD1 121900Z 25019KT 14/M05 A2979 RMK A01 T01391051  RH  026%=      5-min Rain = 0
KAD1 121901Z 25017KT 14/M05 A2979 RMK A01 T01391052  RH  026%=      5-min Rain = 0
KAD1 121902Z 25015KT 14/M05 A2979 RMK A01 T01391051  RH  026%=      5-min Rain = 0
KAD1 121903Z 27016KT 14/M05 A2979 RMK A01 T01411049  RH  026%=      5-min Rain = 0
KAD1 121904Z 26014KT 14/M05 A2978 RMK A01 T01401050  RH  026%=      5-min Rain = 0
KAD1 121905Z 26014KT 14/M05 A2978 RMK A01 T01411049  RH  026%=      5-min Rain = 0
KAD1 121906Z 26015KT 14/M05 A2978 RMK A01 T01411048  RH  026%=      5-min Rain = 0
KAD1 121907Z 26015KT 14/M05 A2978 RMK A01 T01431048  RH  026%=      5-min Rain = 0
KAD1 121908Z 27014KT 14/M05 A2978 RMK A01 T01431048  RH  026%=      5-min Rain = 0
KAD1 121909Z 26016KT 14/M05 A2978 RMK A01 T01441048  RH  026%=      5-min Rain = 0
KAD1 121910Z 25015G20KT 14/M05 A2978 RMK A01 T01431049  RH  026%=      5-min Rain = 0
KAD1 121911Z 25017KT 14/M05 A2978 RMK A01 T01441048  RH  026%=      5-min Rain = 0
KAD1 121912Z 25015KT 14/M05 A2978 RMK A01 T01441049  RH  026%=      5-min Rain = 0
KAD1 121913Z 26015G23KT 15/M05 A2978 RMK A01 T01471045  RH  026%=      5-min Rain = 0
KAD1 121914Z 26017KT 15/M05 A2978 RMK A01 T01501046  RH  025%=      5-min Rain = 0
KAD1 121915Z 25018KT 15/M05 A2978 RMK A01 T01491047  RH  025%=      5-min Rain = 0
KAD1 121916Z 26017KT 15/M05 A2978 RMK A01 T01481047  RH  026%=      5-min Rain = 0
KAD1 121917Z 27016KT 15/M05 A2978 RMK A01 T01481046  RH  026%=      5-min Rain = 0
KAD1 121918Z 26015KT 15/M05 A2978 RMK A01 T01481046  RH  026%=      5-min Rain = 0
KAD1 121919Z 26015KT 15/M05 A2978 RMK A01 T01471047  RH  026%=      5-min Rain = 0
KAD1 121920Z 26017KT 15/M05 A2977 RMK A01 T01471046  RH  026%=      5-min Rain = 0
KAD1 121921Z 25017KT 15/M05 A2977 RMK A01 T01481046  RH  026%=      5-min Rain = 0
KAD1 121922Z 25015KT 15/M05 A2977 RMK A01 T01471047  RH  026%=      5-min Rain = 0
KAD1 121923Z 25013KT 15/M04 A2977 RMK A01 T01491044  RH  026%=      5-min Rain = 0
KAD1 121924Z 26015KT 15/M04 A2977 RMK A01 T01521044  RH  026%=      5-min Rain = 0
KAD1 121925Z 25015KT 15/M04 A2977 RMK A01 T01521043  RH  026%=      5-min Rain = 0
KAD1 121926Z 27016KT 15/M04 A2977 RMK A01 T01531044  RH  025%=      5-min Rain = 0
KAD1 121927Z 25015KT 15/M05 A2977 RMK A01 T01511046  RH  025%=      5-min Rain = 0
KAD1 121928Z 26012KT 15/M05 A2977 RMK A01 T01501045  RH  026%=      5-min Rain = 0
KAD1 121929Z 28010KT 15/M04 A2977 RMK A01 T01501044  RH  026%=      5-min Rain = 0
KAD1 121930Z 27012KT 15/M04 A2977 RMK A01 T01531041  RH  026%=      5-min Rain = 0
KAD1 121931Z 28011KT 15/M04 A2977 RMK A01 T01541043  RH  025%=      5-min Rain = 0
KAD1 121932Z 26009KT 15/M04 A2976 RMK A01 T01531044  RH  026%=      5-min Rain = 0
KAD1 121933Z 26011G16KT 15/M04 A2976 RMK A01 T01541042  RH  026%=      5-min Rain = 0
KAD1 121934Z 26016KT 16/M04 A2976 RMK A01 T01561042  RH  025%=      5-min Rain = 0
KAD1 121935Z 25016KT 16/M04 A2976 RMK A01 T01561044  RH  025%=      5-min Rain = 0
KAD1 121936Z 26013KT 16/M04 A2976 RMK A01 T01561043  RH  025%=      5-min Rain = 0
KAD1 121937Z 27013KT 16/M04 A2976 RMK A01 T01581042  RH  025%=      5-min Rain = 0
KAD1 121938Z 27011KT 16/M04 A2976 RMK A01 T01571042  RH  025%=      5-min Rain = 0
KAD1 121939Z 26015KT 16/M04 A2976 RMK A01 T01571043  RH  025%=      5-min Rain = 0
KAD1 121940Z 26015KT 16/M04 A2975 RMK A01 T01571043  RH  025%=      5-min Rain = 0
KAD1 121941Z 26013KT 16/M04 A2975 RMK A01 T01601041  RH  025%=      5-min Rain = 0
KAD1 121942Z 27016KT 16/M04 A2975 RMK A01 T01641040  RH  024%=      5-min Rain = 0
KAD1 121943Z 27016KT 16/M05 A2975 RMK A01 T01631046  RH  023%=      5-min Rain = 0
KAD1 121944Z 26016G22KT 16/M05 A2975 RMK A01 T01621045  RH  024%=      5-min Rain = 0
KAD1 121945Z 25017KT 16/M05 A2975 RMK A01 T01621045  RH  024%=      5-min Rain = 0
KAD1 121946Z 25016KT 16/M05 A2975 RMK A01 T01641045  RH  023%=      5-min Rain = 0
KAD1 121947Z 25017KT 17/M05 A2975 RMK A01 T01661045  RH  023%=      5-min Rain = 0
KAD1 121948Z 26019KT 17/M05 A2975 RMK A01 T01661046  RH  023%=      5-min Rain = 0
KAD1 121949Z 26018KT 17/M05 A2975 RMK A01 T01661046  RH  023%=      5-min Rain = 0
KAD1 121950Z 24018KT 17/M05 A2975 RMK A01 T01661046  RH  023%=      5-min Rain = 0
KAD1 121951Z 25019KT 17/M05 A2975 RMK A01 T01661046  RH  023%=      5-min Rain = 0
KAD1 121952Z 25018G23KT 17/M05 A2975 RMK A01 T01661046  RH  023%=      5-min Rain = 0
KAD1 121953Z 25021KT 17/M05 A2975 RMK A01 T01661047  RH  023%=      5-min Rain = 0
KAD1 121954Z 26017KT 17/M05 A2974 RMK A01 T01651047  RH  023%=      5-min Rain = 0
KAD1 121955Z 26013KT 17/M04 A2974 RMK A01 T01671044  RH  023%=      5-min Rain = 0
KAD1 121956Z 25014KT 17/M04 A2974 RMK A01 T01701043  RH  023%=      5-min Rain = 0
KAD1 121957Z 26017KT 17/M05 A2974 RMK A01 T01701045  RH  023%=      5-min Rain = 0
KAD1 121958Z 26016G22KT 17/M05 A2974 RMK A01 T01691045  RH  023%=      5-min Rain = 0
KAD1 121959Z 26017KT 17/M05 A2974 RMK A01 T01691045  RH  023%=      5-min Rain = 0
KAD1 122000Z 26018KT 17/M05 A2974 RMK A01 T01691045  RH  023%=      5-min Rain = 0
KAD1 122001Z 26018KT 17/M05 A2974 RMK A01 T01701045  RH  023%=      5-min Rain = 0
KAD1 122002Z 26020KT 17/M05 A2974 RMK A01 T01711045  RH  022%=      5-min Rain = 0
KAD1 122003Z 26016G21KT 17/M05 A2974 RMK A01 T01691047  RH  022%=      5-min Rain = 0
KAD1 122004Z 26017KT 17/M05 A2974 RMK A01 T01691046  RH  023%=      5-min Rain = 0
KAD1 122005Z 26016KT 17/M05 A2974 RMK A01 T01691045  RH  023%=      5-min Rain = 0
KAD1 122006Z 26018KT 17/M04 A2974 RMK A01 T01711044  RH  023%=      5-min Rain = 0
KAD1 122007Z 25019KT 17/M05 A2973 RMK A01 T01711045  RH  022%=      5-min Rain = 0
KAD1 122008Z 25019KT 17/M05 A2973 RMK A01 T01711045  RH  022%=      5-min Rain = 0
KAD1 122009Z 25017KT 17/M05 A2973 RMK A01 T01711046  RH  022%=      5-min Rain = 0
KAD1 122010Z 25018KT 17/M04 A2973 RMK A01 T01721044  RH  022%=      5-min Rain = 0
KAD1 122011Z 25018KT 17/M05 A2973 RMK A01 T01731045  RH  022%=      5-min Rain = 0
KAD1 122012Z 25017G22KT 17/M05 A2973 RMK A01 T01731045  RH  022%=      5-min Rain = 0
KAD1 122013Z 26020KT 17/M05 A2973 RMK A01 T01721045  RH  022%=      5-min Rain = 0
KAD1 122014Z 26013G18KT 17/M05 A2973 RMK A01 T01711045  RH  022%=      5-min Rain = 0
KAD1 122015Z 26017KT 17/M04 A2973 RMK A01 T01721044  RH  022%=      5-min Rain = 0
KAD1 122016Z 26015KT 17/M04 A2973 RMK A01 T01741043  RH  022%=      5-min Rain = 0
KAD1 122017Z 26014KT 18/M04 A2973 RMK A01 T01751043  RH  022%=      5-min Rain = 0
KAD1 122018Z 25013KT 18/M04 A2972 RMK A01 T01751042  RH  022%=      5-min Rain = 0
KAD1 122019Z 25014KT 18/M04 A2972 RMK A01 T01781043  RH  022%=      5-min Rain = 0
KAD1 122020Z 25017KT 18/M04 A2972 RMK A01 T01801043  RH  022%=      5-min Rain = 0
KAD1 122021Z 25015KT 18/M04 A2972 RMK A01 T01801044  RH  021%=      5-min Rain = 0
KAD1 122022Z 25014KT 18/M04 A2972 RMK A01 T01781044  RH  022%=      5-min Rain = 0
KAD1 122023Z 25017KT 18/M05 A2972 RMK A01 T01771045  RH  022%=      5-min Rain = 0
KAD1 122024Z 25015KT 17/M05 A2972 RMK A01 T01741046  RH  022%=      5-min Rain = 0
KAD1 122025Z 25014KT 17/M05 A2972 RMK A01 T01741045  RH  022%=      5-min Rain = 0
KAD1 122026Z 25014KT 18/M04 A2971 RMK A01 T01761043  RH  022%=      5-min Rain = 0
KAD1 122027Z 25015KT 18/M04 A2971 RMK A01 T01771044  RH  022%=      5-min Rain = 0
KAD1 122028Z 25014KT 18/M04 A2971 RMK A01 T01781044  RH  022%=      5-min Rain = 0
KAD1 122029Z 26015KT 18/M04 A2971 RMK A01 T01791044  RH  022%=      5-min Rain = 0
KAD1 122030Z 27015KT 18/M04 A2971 RMK A01 T01801042  RH  022%=      5-min Rain = 0
KAD1 122031Z 27017KT 18/M05 A2971 RMK A01 T01801045  RH  021%=      5-min Rain = 0
KAD1 122032Z 25018KT 18/M05 A2971 RMK A01 T01791047  RH  021%=      5-min Rain = 0
KAD1 122033Z 24017KT 18/M05 A2971 RMK A01 T01781048  RH  021%=      5-min Rain = 0
KAD1 122034Z 26016KT 18/M05 A2971 RMK A01 T01781046  RH  021%=      5-min Rain = 0
KAD1 122035Z 27012KT 18/M04 A2971 RMK A01 T01791044  RH  021%=      5-min Rain = 0
KAD1 122036Z 26013KT 18/M04 A2971 RMK A01 T01801044  RH  021%=      5-min Rain = 0
KAD1 122037Z 26012KT 18/M04 A2971 RMK A01 T01801044  RH  021%=      5-min Rain = 0
KAD1 122038Z 26013KT 18/M04 A297 RMK A01 T01811044  RH  021%=      5-min Rain = 0
KAD1 122039Z 26014KT 18/M04 A297 RMK A01 T01821043  RH  021%=      5-min Rain = 0
KAD1 122040Z 26015KT 18/M04 A297 RMK A01 T01821044  RH  021%=      5-min Rain = 0
KAD1 122041Z 25012KT 18/M05 A297 RMK A01 T01801045  RH  021%=      5-min Rain = 0
KAD1 122042Z 25015KT 18/M05 A297 RMK A01 T01801045  RH  021%=      5-min Rain = 0
KAD1 122043Z 25017KT 18/M05 A297 RMK A01 T01801045  RH  021%=      5-min Rain = 0
KAD1 122044Z 25015KT 18/M05 A297 RMK A01 T01801046  RH  021%=      5-min Rain = 0
KAD1 122045Z 25016G21KT 18/M05 A297 RMK A01 T01811045  RH  021%=      5-min Rain = 0
KAD1 122046Z 26016KT 18/M05 A297 RMK A01 T01831047  RH  021%=      5-min Rain = 0
KAD1 122047Z 27016KT 18/M05 A297 RMK A01 T01831048  RH  020%=      5-min Rain = 0
KAD1 122048Z 25013KT 18/M05 A297 RMK A01 T01841048  RH  020%=      5-min Rain = 0
KAD1 122049Z 25014KT 19/M05 A297 RMK A01 T01851047  RH  020%=      5-min Rain = 0
KAD1 122050Z 26014KT 19/M05 A297 RMK A01 T01861048  RH  020%=      5-min Rain = 0
KAD1 122051Z 26011KT 19/M05 A297 RMK A01 T01871048  RH  020%=      5-min Rain = 0
KAD1 122052Z 25010KT 19/M05 A297 RMK A01 T01881045  RH  020%=      5-min Rain = 0
KAD1 122053Z 26010KT 19/M04 A2969 RMK A01 T01901044  RH  020%=      5-min Rain = 0
KAD1 122054Z 27013G18KT 19/M05 A2969 RMK A01 T01891045  RH  020%=      5-min Rain = 0
KAD1 122055Z 27015KT 19/M05 A2969 RMK A01 T01891047  RH  020%=      5-min Rain = 0
KAD1 122056Z 27018KT 19/M05 A2969 RMK A01 T01891049  RH  020%=      5-min Rain = 0
KAD1 122057Z 28020KT 19/M05 A2969 RMK A01 T01881048  RH  020%=      5-min Rain = 0
KAD1 122058Z 26017G23KT 19/M05 A2969 RMK A01 T01861053  RH  019%=      5-min Rain = 0
KAD1 122059Z 26016G21KT 19/M05 A2969 RMK A01 T01851052  RH  020%=      5-min Rain = 0
KAD1 122100Z 26018G23KT 19/M05 A2969 RMK A01 T01871051  RH  019%=      5-min Rain = 0
KAD1 122101Z 25019KT 19/M05 A2969 RMK A01 T01871054  RH  019%=      5-min Rain = 0
KAD1 122102Z 26016G21KT 19/M05 A2969 RMK A01 T01881050  RH  019%=      5-min Rain = 0
KAD1 122103Z 27020G25KT 19/M05 A2969 RMK A01 T01881053  RH  019%=      5-min Rain = 0
KAD1 122104Z 26020KT 19/M06 A2969 RMK A01 T01881059  RH  018%=      5-min Rain = 0
KAD1 122105Z 25023G30KT 19/M06 A2969 RMK A01 T01891063  RH  018%=      5-min Rain = 0
KAD1 122106Z 26025KT 19/M07 A2969 RMK A01 T01891067  RH  017%=      5-min Rain = 0
KAD1 122107Z 25023KT 19/M07 A2969 RMK A01 T01871067  RH  017%=      5-min Rain = 0
KAD1 122108Z 25020G25KT 19/M07 A2969 RMK A01 T01871066  RH  017%=      5-min Rain = 0
KAD1 122109Z 25020KT 19/M07 A2969 RMK A01 T01881066  RH  017%=      5-min Rain = 0
KAD1 122110Z 26023G29KT 19/M06 A2969 RMK A01 T01901064  RH  017%=      5-min Rain = 0
KAD1 122111Z 26024KT 19/M07 A2969 RMK A01 T01891065  RH  017%=      5-min Rain = 0
KAD1 122112Z 26021KT 19/M06 A2969 RMK A01 T01871064  RH  018%=      5-min Rain = 0
KAD1 122113Z 25021KT 19/M06 A2969 RMK A01 T01881063  RH  018%=      5-min Rain = 0
KAD1 122114Z 25019KT 19/M06 A2969 RMK A01 T01881064  RH  017%=      5-min Rain = 0
KAD1 122115Z 25017G22KT 19/M06 A2969 RMK A01 T01881064  RH  018%=      5-min Rain = 0
KAD1 122116Z 25018G23KT 19/M06 A2969 RMK A01 T01901062  RH  018%=      5-min Rain = 0
KAD1 122117Z 25022KT 19/M06 A2969 RMK A01 T01911062  RH  017%=      5-min Rain = 0
KAD1 122118Z 25024KT 19/M06 A2969 RMK A01 T01891064  RH  017%=      5-min Rain = 0
KAD1 122119Z 25021G28KT 19/M07 A2968 RMK A01 T01871067  RH  017%=      5-min Rain = 0
KAD1 122120Z 25024KT 19/M07 A2968 RMK A01 T01861068  RH  017%=      5-min Rain = 0
KAD1 122121Z 26026G31KT 19/M07 A2968 RMK A01 T01861068  RH  017%=      5-min Rain = 0
KAD1 122122Z 26021G26KT 19/M07 A2969 RMK A01 T01861066  RH  017%=      5-min Rain = 0
KAD1 122123Z 26024KT 19/M07 A2969 RMK A01 T01861069  RH  017%=      5-min Rain = 0
KAD1 122124Z 26021KT 19/M07 A2969 RMK A01 T01861071  RH  017%=      5-min Rain = 0
KAD1 122125Z 25020KT 19/M07 A2968 RMK A01 T01861069  RH  017%=      5-min Rain = 0
KAD1 122126Z 25020KT 19/M07 A2968 RMK A01 T01861068  RH  017%=      5-min Rain = 0
KAD1 122127Z 25019G24KT 19/M07 A2968 RMK A01 T01861068  RH  017%=      5-min Rain = 0
KAD1 122128Z 25021KT 19/M07 A2968 RMK A01 T01861066  RH  017%=      5-min Rain = 0
KAD1 122129Z 25020KT 19/M07 A2968 RMK A01 T01851065  RH  018%=      5-min Rain = 0
KAD1 122130Z 25021KT 19/M07 A2968 RMK A01 T01851065  RH  018%=      5-min Rain = 0
KAD1 122131Z 25022KT 19/M07 A2968 RMK A01 T01851065  RH  018%=      5-min Rain = 0
KAD1 122132Z 26021G26KT 19/M06 A2968 RMK A01 T01861064  RH  018%=      5-min Rain = 0
KAD1 122133Z 27020G25KT 19/M06 A2968 RMK A01 T01861064  RH  018%=      5-min Rain = 0
KAD1 122134Z 26019G24KT 19/M06 A2968 RMK A01 T01851063  RH  018%=      5-min Rain = 0
KAD1 122135Z 25016KT 19/M06 A2968 RMK A01 T01861062  RH  018%=      5-min Rain = 0
KAD1 122136Z 25024G30KT 19/M06 A2968 RMK A01 T01871063  RH  018%=      5-min Rain = 0
KAD1 122137Z 26022KT 19/M07 A2968 RMK A01 T01861066  RH  017%=      5-min Rain = 0
KAD1 122138Z 25023G28KT 19/M07 A2968 RMK A01 T01851068  RH  017%=      5-min Rain = 0
KAD1 122139Z 25025G30KT 19/M07 A2968 RMK A01 T01851070  RH  017%=      5-min Rain = 0
KAD1 122140Z 25024G30KT 18/M07 A2968 RMK A01 T01841071  RH  017%=      5-min Rain = 0
KAD1 122141Z 25024G29KT 18/M07 A2968 RMK A01 T01831069  RH  017%=      5-min Rain = 0
KAD1 122142Z 25023G28KT 18/M07 A2968 RMK A01 T01831070  RH  017%=      5-min Rain = 0
KAD1 122143Z 26019G25KT 18/M07 A2968 RMK A01 T01831069  RH  017%=      5-min Rain = 0
KAD1 122144Z 26017KT 18/M07 A2968 RMK A01 T01841068  RH  017%=      5-min Rain = 0
KAD1 122145Z 26019G24KT 19/M07 A2968 RMK A01 T01851067  RH  017%=      5-min Rain = 0
KAD1 122146Z 26021KT 19/M07 A2968 RMK A01 T01851066  RH  018%=      5-min Rain = 0
KAD1 122147Z 26020G26KT 19/M07 A2968 RMK A01 T01851067  RH  017%=      5-min Rain = 0
KAD1 122148Z 26019KT 19/M07 A2968 RMK A01 T01851066  RH  018%=      5-min Rain = 0
KAD1 122149Z 26019G24KT 19/M07 A2968 RMK A01 T01851066  RH  018%=      5-min Rain = 0
KAD1 122150Z 26021KT 18/M07 A2968 RMK A01 T01841067  RH  017%=      5-min Rain = 0
KAD1 122151Z 26022KT 19/M07 A2968 RMK A01 T01851068  RH  017%=      5-min Rain = 0
KAD1 122152Z 26023G29KT 18/M07 A2968 RMK A01 T01841069  RH  017%=      5-min Rain = 0
KAD1 122153Z 26024G29KT 18/M07 A2968 RMK A01 T01841070  RH  017%=      5-min Rain = 0
KAD1 122154Z 26023KT 18/M07 A2968 RMK A01 T01831069  RH  017%=      5-min Rain = 0
KAD1 122155Z 25023G28KT 18/M07 A2968 RMK A01 T01831070  RH  017%=      5-min Rain = 0
KAD1 122156Z 25022KT 18/M07 A2968 RMK A01 T01821069  RH  017%=      5-min Rain = 0
KAD1 122157Z 25023KT 18/M07 A2968 RMK A01 T01821069  RH  017%=      5-min Rain = 0
KAD1 122158Z 25023KT 18/M07 A2967 RMK A01 T01821068  RH  018%=      5-min Rain = 0
KAD1 122159Z 26023G29KT 18/M07 A2967 RMK A01 T01821069  RH  018%=      5-min Rain = 0
KAD1 122200Z 27020KT 18/M07 A2967 RMK A01 T01831068  RH  018%=      5-min Rain = 0
KAD1 122201Z 26019KT 18/M07 A2967 RMK A01 T01821068  RH  018%=      5-min Rain = 0
KAD1 122202Z 26024G29KT 18/M07 A2968 RMK A01 T01831069  RH  017%=      5-min Rain = 0
KAD1 122203Z 26022G30KT 18/M07 A2967 RMK A01 T01831070  RH  017%=      5-min Rain = 0
KAD1 122204Z 27020KT 18/M07 A2967 RMK A01 T01821069  RH  017%=      5-min Rain = 0
KAD1 122205Z 27019G26KT 18/M07 A2967 RMK A01 T01821069  RH  017%=      5-min Rain = 0
KAD1 122206Z 26024KT 18/M07 A2967 RMK A01 T01821070  RH  017%=      5-min Rain = 0
KAD1 122207Z 26021G27KT 18/M07 A2967 RMK A01 T01811071  RH  017%=      5-min Rain = 0
KAD1 122208Z 26020KT 18/M07 A2967 RMK A01 T01811070  RH  017%=      5-min Rain = 0
KAD1 122209Z 26019KT 18/M07 A2967 RMK A01 T01811069  RH  018%=      5-min Rain = 0
KAD1 122210Z 26020G25KT 18/M07 A2967 RMK A01 T01811068  RH  018%=      5-min Rain = 0
KAD1 122211Z 27019KT 18/M07 A2967 RMK A01 T01811067  RH  018%=      5-min Rain = 0
KAD1 122212Z 26017KT 18/M07 A2967 RMK A01 T01811066  RH  018%=      5-min Rain = 0
KAD1 122213Z 25020G25KT 18/M07 A2967 RMK A01 T01811065  RH  018%=      5-min Rain = 0
KAD1 122214Z 25021KT 18/M07 A2967 RMK A01 T01821065  RH  018%=      5-min Rain = 0
KAD1 122215Z 25020G28KT 18/M07 A2967 RMK A01 T01811066  RH  018%=      5-min Rain = 0
KAD1 122216Z 25021G26KT 18/M07 A2967 RMK A01 T01811066  RH  018%=      5-min Rain = 0
KAD1 122217Z 24024G31KT 18/M07 A2967 RMK A01 T01801067  RH  018%=      5-min Rain = 0
KAD1 122218Z 25021G28KT 18/M07 A2967 RMK A01 T01801067  RH  018%=      5-min Rain = 0
KAD1 122219Z 25019G24KT 18/M07 A2967 RMK A01 T01791066  RH  018%=      5-min Rain = 0
KAD1 122220Z 25023KT 18/M07 A2967 RMK A01 T01801067  RH  018%=      5-min Rain = 0
KAD1 122221Z 26020KT 18/M07 A2967 RMK A01 T01801069  RH  018%=      5-min Rain = 0
KAD1 122222Z 27019G25KT 18/M07 A2967 RMK A01 T01791068  RH  018%=      5-min Rain = 0
KAD1 122223Z 27020G27KT 18/M07 A2967 RMK A01 T01801068  RH  018%=      5-min Rain = 0
KAD1 122224Z 26019KT 18/M07 A2967 RMK A01 T01791068  RH  018%=      5-min Rain = 0
KAD1 122225Z 26020KT 18/M07 A2967 RMK A01 T01791068  RH  018%=      5-min Rain = 0
KAD1 122226Z 25016KT 18/M07 A2967 RMK A01 T01791067  RH  018%=      5-min Rain = 0
KAD1 122227Z 25018G23KT 18/M07 A2967 RMK A01 T01791067  RH  018%=      5-min Rain = 0
KAD1 122228Z 25019KT 18/M07 A2967 RMK A01 T01791066  RH  018%=      5-min Rain = 0
KAD1 122229Z 25017KT 18/M07 A2967 RMK A01 T01791066  RH  018%=      5-min Rain = 0
KAD1 122230Z 25016G21KT 18/M07 A2967 RMK A01 T01791065  RH  018%=      5-min Rain = 0
KAD1 122231Z 25016KT 18/M06 A2967 RMK A01 T01781064  RH  019%=      5-min Rain = 0
KAD1 122232Z 25015KT 18/M06 A2967 RMK A01 T01781063  RH  019%=      5-min Rain = 0
KAD1 122233Z 25018G26KT 18/M06 A2967 RMK A01 T01781063  RH  019%=      5-min Rain = 0
KAD1 122234Z 26023KT 18/M06 A2967 RMK A01 T01771064  RH  019%=      5-min Rain = 0
KAD1 122235Z 25017G23KT 18/M07 A2967 RMK A01 T01771065  RH  019%=      5-min Rain = 0
KAD1 122236Z 25018G24KT 18/M06 A2967 RMK A01 T01771063  RH  019%=      5-min Rain = 0
KAD1 122237Z 25018KT 18/M06 A2967 RMK A01 T01761063  RH  019%=      5-min Rain = 0
KAD1 122238Z 25016G21KT 18/M06 A2967 RMK A01 T01761063  RH  019%=      5-min Rain = 0
KAD1 122239Z 25017KT 18/M06 A2967 RMK A01 T01761062  RH  019%=      5-min Rain = 0
KAD1 122240Z 26016KT 18/M06 A2967 RMK A01 T01751062  RH  019%=      5-min Rain = 0
KAD1 122241Z 26015KT 18/M06 A2967 RMK A01 T01751061  RH  019%=      5-min Rain = 0
KAD1 122242Z 26016KT 18/M06 A2967 RMK A01 T01751061  RH  019%=      5-min Rain = 0
KAD1 122243Z 26017KT 18/M06 A2967 RMK A01 T01751063  RH  019%=      5-min Rain = 0
KAD1 122244Z 25017KT 18/M06 A2967 RMK A01 T01751063  RH  019%=      5-min Rain = 0
KAD1 122245Z 26017KT 17/M06 A2966 RMK A01 T01741063  RH  019%=      5-min Rain = 0
KAD1 122246Z 26018KT 17/M06 A2967 RMK A01 T01741064  RH  019%=      5-min Rain = 0
KAD1 122247Z 26016KT 17/M07 A2966 RMK A01 T01741065  RH  019%=      5-min Rain = 0
KAD1 122248Z 26014G22KT 17/M06 A2966 RMK A01 T01741064  RH  019%=      5-min Rain = 0
KAD1 122249Z 26020KT 17/M07 A2966 RMK A01 T01731068  RH  019%=      5-min Rain = 0
KAD1 122250Z 26020KT 17/M07 A2966 RMK A01 T01731070  RH  018%=      5-min Rain = 0
KAD1 122251Z 26018G25KT 17/M07 A2966 RMK A01 T01731072  RH  018%=      5-min Rain = 0
KAD1 122252Z 26023KT 17/M07 A2966 RMK A01 T01731074  RH  018%=      5-min Rain = 0
KAD1 122253Z 26022KT 17/M08 A2966 RMK A01 T01731076  RH  018%=      5-min Rain = 0
KAD1 122254Z 26019KT 17/M08 A2966 RMK A01 T01721075  RH  018%=      5-min Rain = 0
KAD1 122255Z 26020KT 17/M08 A2966 RMK A01 T01721075  RH  018%=      5-min Rain = 0
KAD1 122256Z 26020KT 17/M07 A2966 RMK A01 T01721074  RH  018%=      5-min Rain = 0
KAD1 122257Z 26017KT 17/M08 A2966 RMK A01 T01721075  RH  018%=      5-min Rain = 0
KAD1 122258Z 26017KT 17/M07 A2966 RMK A01 T01711074  RH  018%=      5-min Rain = 0
KAD1 122259Z 26015KT 17/M07 A2966 RMK A01 T01701074  RH  018%=      5-min Rain = 0
KAD1 122300Z 26014KT 17/M07 A2966 RMK A01 T01691073  RH  018%=      5-min Rain = 0
KAD1 122301Z 26013KT 17/M07 A2966 RMK A01 T01681073  RH  019%=      5-min Rain = 0
KAD1 122302Z 26013KT 17/M07 A2966 RMK A01 T01671072  RH  019%=      5-min Rain = 0
KAD1 122303Z 26011KT 17/M07 A2966 RMK A01 T01661072  RH  019%=      5-min Rain = 0
KAD1 122304Z 26013KT 17/M07 A2966 RMK A01 T01651072  RH  019%=      5-min Rain = 0
KAD1 122305Z 26010KT 17/M07 A2966 RMK A01 T01651072  RH  019%=      5-min Rain = 0
KAD1 122306Z 26013KT 16/M07 A2966 RMK A01 T01641071  RH  019%=      5-min Rain = 0
KAD1 122307Z 26013KT 16/M07 A2966 RMK A01 T01631071  RH  019%=      5-min Rain = 0
KAD1 122308Z 26012KT 16/M07 A2966 RMK A01 T01631071  RH  019%=      5-min Rain = 0
KAD1 122309Z 25012KT 16/M07 A2966 RMK A01 T01631072  RH  019%=      5-min Rain = 0
KAD1 122310Z 26012KT 16/M07 A2966 RMK A01 T01621072  RH  019%=      5-min Rain = 0
KAD1 122311Z 26013KT 16/M07 A2966 RMK A01 T01611073  RH  019%=      5-min Rain = 0
KAD1 122312Z 26014KT 16/M07 A2966 RMK A01 T01611073  RH  019%=      5-min Rain = 0
KAD1 122313Z 26014KT 16/M07 A2966 RMK A01 T01601074  RH  019%=      5-min Rain = 0
KAD1 122314Z 26014KT 16/M07 A2966 RMK A01 T01601074  RH  019%=      5-min Rain = 0
KAD1 122315Z 26015KT 16/M08 A2966 RMK A01 T01591075  RH  019%=      5-min Rain = 0
KAD1 122316Z 26014KT 16/M08 A2966 RMK A01 T01591075  RH  019%=      5-min Rain = 0
KAD1 122317Z 26012KT 16/M08 A2966 RMK A01 T01581075  RH  019%=      5-min Rain = 0
KAD1 122318Z 26011KT 16/M08 A2966 RMK A01 T01571075  RH  020%=      5-min Rain = 0
KAD1 122319Z 26011KT 16/M08 A2966 RMK A01 T01551075  RH  020%=      5-min Rain = 0
KAD1 122320Z 25012KT 15/M08 A2966 RMK A01 T01541076  RH  020%=      5-min Rain = 0
KAD1 122321Z 26012KT 15/M08 A2966 RMK A01 T01531075  RH  020%=      5-min Rain = 0
KAD1 122322Z 26013KT 15/M08 A2966 RMK A01 T01531075  RH  020%=      5-min Rain = 0
KAD1 122323Z 26012KT 15/M08 A2966 RMK A01 T01521075  RH  020%=      5-min Rain = 0
KAD1 122324Z 25012KT 15/M08 A2966 RMK A01 T01521075  RH  020%=      5-min Rain = 0
KAD1 122325Z 26012KT 15/M08 A2966 RMK A01 T01511075  RH  020%=      5-min Rain = 0
KAD1 122326Z 26011KT 15/M07 A2966 RMK A01 T01511074  RH  020%=      5-min Rain = 0
KAD1 122327Z 26011KT 15/M07 A2966 RMK A01 T01501074  RH  021%=      5-min Rain = 0
KAD1 122328Z 26010KT 15/M07 A2966 RMK A01 T01491074  RH  021%=      5-min Rain = 0
KAD1 122329Z 26011KT 15/M07 A2966 RMK A01 T01481074  RH  021%=      5-min Rain = 0
KAD1 122330Z 26010KT 15/M07 A2966 RMK A01 T01461074  RH  021%=      5-min Rain = 0
KAD1 122331Z 26012KT 15/M07 A2966 RMK A01 T01461074  RH  021%=      5-min Rain = 0
KAD1 122332Z 26014KT 15/M07 A2966 RMK A01 T01461073  RH  021%=      5-min Rain = 0
KAD1 122333Z 25010KT 15/M07 A2966 RMK A01 T01471072  RH  021%=      5-min Rain = 0
KAD1 122334Z 25011KT 15/M07 A2966 RMK A01 T01461073  RH  021%=      5-min Rain = 0
KAD1 122335Z 25011KT 15/M07 A2966 RMK A01 T01451072  RH  022%=      5-min Rain = 0
KAD1 122336Z 26010KT 14/M07 A2966 RMK A01 T01441071  RH  022%=      5-min Rain = 0
KAD1 122337Z 26010KT 14/M07 A2966 RMK A01 T01421071  RH  022%=      5-min Rain = 0
KAD1 122338Z 25009KT 14/M07 A2966 RMK A01 T01411071  RH  022%=      5-min Rain = 0
KAD1 122339Z 26008KT 14/M07 A2966 RMK A01 T01401071  RH  023%=      5-min Rain = 0
KAD1 122340Z 26009KT 14/M07 A2966 RMK A01 T01381070  RH  023%=      5-min Rain = 0
KAD1 122341Z 26009KT 14/M07 A2966 RMK A01 T01371069  RH  023%=      5-min Rain = 0
KAD1 122342Z 26010KT 14/M07 A2966 RMK A01 T01361069  RH  023%=      5-min Rain = 0
KAD1 122343Z 26009KT 14/M07 A2966 RMK A01 T01361068  RH  024%=      5-min Rain = 0
KAD1 122344Z 26009KT 14/M07 A2966 RMK A01 T01351068  RH  024%=      5-min Rain = 0
KAD1 122345Z 25010KT 13/M07 A2966 RMK A01 T01341068  RH  024%=      5-min Rain = 0
KAD1 122346Z 25010KT 13/M07 A2966 RMK A01 T01331068  RH  024%=      5-min Rain = 0
KAD1 122347Z 25011KT 13/M07 A2966 RMK A01 T01331068  RH  024%=      5-min Rain = 0
KAD1 122348Z 25013KT 13/M07 A2966 RMK A01 T01331068  RH  024%=      5-min Rain = 0
KAD1 122349Z 26014G19KT 14/M07 A2966 RMK A01 T01351068  RH  024%=      5-min Rain = 0
KAD1 122350Z 26014KT 14/M07 A2966 RMK A01 T01361068  RH  023%=      5-min Rain = 0
KAD1 122351Z 25014G20KT 14/M07 A2966 RMK A01 T01371069  RH  023%=      5-min Rain = 0
KAD1 122352Z 25013KT 14/M07 A2966 RMK A01 T01381069  RH  023%=      5-min Rain = 0
KAD1 122353Z 25013KT 14/M07 A2966 RMK A01 T01381069  RH  023%=      5-min Rain = 0
KAD1 122354Z 25012KT 14/M07 A2966 RMK A01 T01381070  RH  023%=      5-min Rain = 0
KAD1 122355Z 25011KT 14/M07 A2966 RMK A01 T01361071  RH  023%=      5-min Rain = 0
KAD1 122356Z 25011KT 13/M07 A2966 RMK A01 T01341071  RH  023%=      5-min Rain = 0
KAD1 122357Z 25013KT 13/M07 A2966 RMK A01 T01331071  RH  024%=      5-min Rain = 0
KAD1 122358Z 25012KT 13/M07 A2966 RMK A01 T01331071  RH  024%=      5-min Rain = 0
KAD1 122359Z 25012KT 13/M07 A2966 RMK A01 T01321070  RH  024%=      5-min Rain = 0
KAD1 130000Z 25012KT 13/M07 A2966 RMK A01 T01321071  RH  024%=      5-min Rain = 0
KAD1 130001Z 25012KT 13/M07 A2966 RMK A01 T01321071  RH  024%=      5-min Rain = 0
KAD1 130002Z 25011KT 13/M07 A2966 RMK A01 T01321071  RH  024%=      5-min Rain = 0
KAD1 130003Z 25013KT 13/M07 A2966 RMK A01 T01311071  RH  024%=      5-min Rain = 0
KAD1 130004Z 25012KT 13/M07 A2966 RMK A01 T01311071  RH  024%=      5-min Rain = 0
KAD1 130005Z 25011KT 13/M07 A2966 RMK A01 T01311071  RH  024%=      5-min Rain = 0
KAD1 130006Z 25011KT 13/M07 A2966 RMK A01 T01311071  RH  024%=      5-min Rain = 0
KAD1 130007Z 25011KT 13/M07 A2966 RMK A01 T01291071  RH  024%=      5-min Rain = 0
KAD1 130008Z 25012KT 13/M07 A2966 RMK A01 T01291071  RH  024%=      5-min Rain = 0
KAD1 130009Z 25011KT 13/M07 A2966 RMK A01 T01281071  RH  024%=      5-min Rain = 0
KAD1 130010Z 25012KT 13/M07 A2966 RMK A01 T01281071  RH  024%=      5-min Rain = 0
KAD1 130011Z 25013KT 13/M07 A2966 RMK A01 T01281071  RH  024%=      5-min Rain = 0
KAD1 130012Z 25013KT 13/M07 A2966 RMK A01 T01291071  RH  024%=      5-min Rain = 0
KAD1 130013Z 25014KT 13/M07 A2966 RMK A01 T01301071  RH  024%=      5-min Rain = 0
KAD1 130014Z 25012KT 13/M07 A2966 RMK A01 T01311071  RH  024%=      5-min Rain = 0
KAD1 130015Z 25012KT 13/M07 A2966 RMK A01 T01311071  RH  024%=      5-min Rain = 0
KAD1 130016Z 25012KT 13/M07 A2965 RMK A01 T01301071  RH  024%=      5-min Rain = 0
KAD1 130017Z 25013KT 13/M07 A2966 RMK A01 T01291071  RH  024%=      5-min Rain = 0
KAD1 130018Z 25014KT 13/M07 A2965 RMK A01 T01301070  RH  024%=      5-min Rain = 0
KAD1 130019Z 25012KT 13/M07 A2966 RMK A01 T01301070  RH  024%=      5-min Rain = 0
KAD1 130020Z 25014KT 13/M07 A2966 RMK A01 T01291070  RH  024%=      5-min Rain = 0
KAD1 130021Z 25012KT 13/M07 A2966 RMK A01 T01301070  RH  024%=      5-min Rain = 0
KAD1 130022Z 25014KT 13/M07 A2966 RMK A01 T01301070  RH  024%=      5-min Rain = 0
KAD1 130023Z 25012KT 13/M07 A2966 RMK A01 T01291070  RH  024%=      5-min Rain = 0
KAD1 130024Z 25014KT 13/M07 A2966 RMK A01 T01291069  RH  024%=      5-min Rain = 0
KAD1 130025Z 25014KT 13/M07 A2966 RMK A01 T01291069  RH  024%=      5-min Rain = 0
KAD1 130026Z 25014KT 13/M07 A2966 RMK A01 T01301069  RH  024%=      5-min Rain = 0
KAD1 130027Z 25013KT 13/M07 A2966 RMK A01 T01311069  RH  024%=      5-min Rain = 0
KAD1 130028Z 25014KT 13/M07 A2966 RMK A01 T01311069  RH  024%=      5-min Rain = 0
KAD1 130029Z 25015KT 13/M07 A2966 RMK A01 T01321070  RH  024%=      5-min Rain = 0
KAD1 130030Z 25014KT 13/M07 A2966 RMK A01 T01331069  RH  024%=      5-min Rain = 0
KAD1 130031Z 25014KT 13/M07 A2966 RMK A01 T01331070  RH  024%=      5-min Rain = 0
KAD1 130032Z 25015KT 13/M07 A2966 RMK A01 T01321070  RH  024%=      5-min Rain = 0
KAD1 130033Z 25014KT 13/M07 A2966 RMK A01 T01331070  RH  024%=      5-min Rain = 0
KAD1 130034Z 25014KT 13/M07 A2966 RMK A01 T01331070  RH  024%=      5-min Rain = 0
KAD1 130035Z 25013KT 13/M07 A2966 RMK A01 T01321070  RH  024%=      5-min Rain = 0
KAD1 130036Z 25015KT 13/M07 A2966 RMK A01 T01321070  RH  024%=      5-min Rain = 0
KAD1 130037Z 25013KT 13/M07 A2966 RMK A01 T01321070  RH  024%=      5-min Rain = 0
KAD1 130038Z 25015KT 13/M07 A2966 RMK A01 T01321070  RH  024%=      5-min Rain = 0
KAD1 130039Z 25013KT 13/M07 A2966 RMK A01 T01331070  RH  024%=      5-min Rain = 0
KAD1 130040Z 24012KT 13/M07 A2966 RMK A01 T01311070  RH  024%=      5-min Rain = 0
KAD1 130041Z 24011KT 13/M07 A2966 RMK A01 T01281071  RH  024%=      5-min Rain = 0
KAD1 130042Z 24011KT 13/M07 A2966 RMK A01 T01271070  RH  025%=      5-min Rain = 0
KAD1 130043Z 24011KT 13/M07 A2966 RMK A01 T01261070  RH  025%=      5-min Rain = 0
KAD1 130044Z 25013KT 13/M07 A2966 RMK A01 T01251069  RH  025%=      5-min Rain = 0
KAD1 130045Z 24014KT 13/M07 A2966 RMK A01 T01251069  RH  025%=      5-min Rain = 0
KAD1 130046Z 24015KT 13/M07 A2966 RMK A01 T01261070  RH  025%=      5-min Rain = 0
KAD1 130047Z 25015KT 13/M07 A2965 RMK A01 T01281069  RH  025%=      5-min Rain = 0
KAD1 130048Z 25014KT 13/M07 A2965 RMK A01 T01291070  RH  024%=      5-min Rain = 0
KAD1 130049Z 25018KT 13/M07 A2966 RMK A01 T01291071  RH  024%=      5-min Rain = 0
KAD1 130050Z 25015KT 13/M07 A2965 RMK A01 T01311071  RH  024%=      5-min Rain = 0
KAD1 130051Z 25015KT 13/M07 A2965 RMK A01 T01311071  RH  024%=      5-min Rain = 0
KAD1 130052Z 25016KT 13/M07 A2965 RMK A01 T01321071  RH  024%=      5-min Rain = 0
KAD1 130053Z 25016KT 13/M07 A2965 RMK A01 T01321071  RH  024%=      5-min Rain = 0
KAD1 130054Z 25015KT 13/M07 A2965 RMK A01 T01321071  RH  024%=      5-min Rain = 0
KAD1 130055Z 25015KT 13/M07 A2965 RMK A01 T01311071  RH  024%=      5-min Rain = 0
KAD1 130056Z 25016KT 13/M07 A2965 RMK A01 T01301071  RH  024%=      5-min Rain = 0
KAD1 130057Z 25015KT 13/M07 A2965 RMK A01 T01301071  RH  024%=      5-min Rain = 0
KAD1 130058Z 25015KT 13/M07 A2965 RMK A01 T01291071  RH  024%=      5-min Rain = 0
KAD1 130059Z 25016KT 13/M07 A2965 RMK A01 T01291071  RH  024%=      5-min Rain = 0
KAD1 130100Z 25017KT 13/M07 A2965 RMK A01 T01291072  RH  024%=      5-min Rain = 0
KAD1 130101Z 25015KT 13/M07 A2965 RMK A01 T01291071  RH  024%=      5-min Rain = 0
KAD1 130102Z 25013KT 13/M07 A2965 RMK A01 T01281071  RH  024%=      5-min Rain = 0
KAD1 130103Z 25013KT 13/M07 A2965 RMK A01 T01261070  RH  025%=      5-min Rain = 0
KAD1 130104Z 25014KT 12/M07 A2965 RMK A01 T01241071  RH  025%=      5-min Rain = 0
KAD1 130105Z 25013KT 12/M07 A2965 RMK A01 T01231070  RH  025%=      5-min Rain = 0
KAD1 130106Z 25015KT 12/M07 A2965 RMK A01 T01221070  RH  025%=      5-min Rain = 0
KAD1 130107Z 25016KT 12/M07 A2965 RMK A01 T01231071  RH  025%=      5-min Rain = 0
KAD1 130108Z 25014KT 12/M07 A2965 RMK A01 T01241070  RH  025%=      5-min Rain = 0
KAD1 130109Z 25015KT 12/M07 A2965 RMK A01 T01231071  RH  025%=      5-min Rain = 0
KAD1 130110Z 25015KT 12/M07 A2965 RMK A01 T01231071  RH  025%=      5-min Rain = 0
KAD1 130111Z 25014KT 12/M07 A2965 RMK A01 T01231071  RH  025%=      5-min Rain = 0
KAD1 130112Z 25017G23KT 12/M07 A2965 RMK A01 T01221071  RH  025%=      5-min Rain = 0
KAD1 130113Z 25016KT 12/M07 A2965 RMK A01 T01231070  RH  025%=      5-min Rain = 0
KAD1 130114Z 25016KT 12/M07 A2965 RMK A01 T01231070  RH  025%=      5-min Rain = 0
KAD1 130115Z 25014G20KT 12/M07 A2965 RMK A01 T01231070  RH  025%=      5-min Rain = 0
KAD1 130116Z 25016KT 12/M07 A2965 RMK A01 T01221070  RH  026%=      5-min Rain = 0
KAD1 130117Z 25014KT 12/M07 A2965 RMK A01 T01201070  RH  026%=      5-min Rain = 0
KAD1 130118Z 25014KT 12/M07 A2965 RMK A01 T01201070  RH  026%=      5-min Rain = 0
KAD1 130119Z 25015KT 12/M07 A2965 RMK A01 T01191070  RH  026%=      5-min Rain = 0
KAD1 130120Z 25015KT 12/M07 A2965 RMK A01 T01191070  RH  026%=      5-min Rain = 0
KAD1 130121Z 25013KT 12/M07 A2965 RMK A01 T01191069  RH  026%=      5-min Rain = 0
KAD1 130122Z 25015KT 12/M07 A2965 RMK A01 T01181069  RH  026%=      5-min Rain = 0
KAD1 130123Z 25015KT 12/M07 A2965 RMK A01 T01181069  RH  026%=      5-min Rain = 0
KAD1 130124Z 25014KT 12/M07 A2965 RMK A01 T01191068  RH  026%=      5-min Rain = 0
KAD1 130125Z 25016G26KT 12/M07 A2965 RMK A01 T01191068  RH  026%=      5-min Rain = 0
KAD1 130126Z 25016KT 12/M07 A2965 RMK A01 T01201067  RH  026%=      5-min Rain = 0
KAD1 130127Z 25016G21KT 12/M07 A2965 RMK A01 T01211067  RH  026%=      5-min Rain = 0
KAD1 130128Z 25016KT 12/M07 A2965 RMK A01 T01211067  RH  026%=      5-min Rain = 0
KAD1 130129Z 25016KT 12/M07 A2965 RMK A01 T01211067  RH  026%=      5-min Rain = 0
KAD1 130130Z 25016KT 12/M07 A2965 RMK A01 T01201068  RH  026%=      5-min Rain = 0
KAD1 130131Z 25016KT 12/M07 A2965 RMK A01 T01201068  RH  026%=      5-min Rain = 0
KAD1 130132Z 25015KT 12/M07 A2965 RMK A01 T01201067  RH  026%=      5-min Rain = 0
KAD1 130133Z 25015KT 12/M07 A2965 RMK A01 T01191068  RH  027%=      5-min Rain = 0
KAD1 130134Z 25016KT 12/M07 A2965 RMK A01 T01181067  RH  027%=      5-min Rain = 0
KAD1 130135Z 25014KT 12/M07 A2965 RMK A01 T01181067  RH  027%=      5-min Rain = 0
KAD1 130136Z 25013KT 12/M07 A2965 RMK A01 T01181067  RH  027%=      5-min Rain = 0
KAD1 130137Z 25015G20KT 12/M07 A2965 RMK A01 T01171067  RH  027%=      5-min Rain = 0
KAD1 130138Z 25017KT 12/M07 A2965 RMK A01 T01161067  RH  027%=      5-min Rain = 0
KAD1 130139Z 25016KT 12/M07 A2965 RMK A01 T01171067  RH  027%=      5-min Rain = 0
KAD1 130140Z 25018KT 12/M07 A2965 RMK A01 T01171066  RH  027%=      5-min Rain = 0
KAD1 130141Z 25017KT 12/M07 A2965 RMK A01 T01171065  RH  027%=      5-min Rain = 0
KAD1 130142Z 25017KT 12/M07 A2965 RMK A01 T01171065  RH  027%=      5-min Rain = 0
KAD1 130143Z 25016KT 12/M07 A2965 RMK A01 T01171065  RH  027%=      5-min Rain = 0
KAD1 130144Z 25017KT 12/M07 A2965 RMK A01 T01161065  RH  028%=      5-min Rain = 0
KAD1 130145Z 25017KT 12/M07 A2965 RMK A01 T01151065  RH  028%=      5-min Rain = 0
KAD1 130146Z 25017KT 12/M06 A2965 RMK A01 T01151064  RH  028%=      5-min Rain = 0
KAD1 130147Z 25017KT 11/M06 A2965 RMK A01 T01141064  RH  028%=      5-min Rain = 0
KAD1 130148Z 25016KT 11/M06 A2965 RMK A01 T01131064  RH  029%=      5-min Rain = 0
KAD1 130149Z 25015KT 11/M06 A2965 RMK A01 T01121063  RH  029%=      5-min Rain = 0
KAD1 130150Z 25017KT 11/M06 A2965 RMK A01 T01111063  RH  029%=      5-min Rain = 0
KAD1 130151Z 25017KT 11/M06 A2965 RMK A01 T01111063  RH  029%=      5-min Rain = 0
KAD1 130152Z 25017KT 11/M06 A2965 RMK A01 T01111063  RH  029%=      5-min Rain = 0
KAD1 130153Z 25016KT 11/M06 A2965 RMK A01 T01101063  RH  029%=      5-min Rain = 0
KAD1 130154Z 25017KT 11/M06 A2965 RMK A01 T01091062  RH  029%=      5-min Rain = 0
KAD1 130155Z 25017KT 11/M06 A2965 RMK A01 T01091062  RH  030%=      5-min Rain = 0
KAD1 130156Z 25018KT 11/M06 A2965 RMK A01 T01081062  RH  030%=      5-min Rain = 0
KAD1 130157Z 25017KT 11/M06 A2965 RMK A01 T01081062  RH  030%=      5-min Rain = 0
KAD1 130158Z 25016KT 11/M06 A2965 RMK A01 T01071062  RH  030%=      5-min Rain = 0
KAD1 130159Z 25017KT 11/M06 A2965 RMK A01 T01071061  RH  030%=      5-min Rain = 0
KAD1 130200Z 25017KT 11/M06 A2965 RMK A01 T01071061  RH  030%=      5-min Rain = 0
KAD1 130201Z 25016KT 11/M06 A2965 RMK A01 T01071061  RH  030%=      5-min Rain = 0
KAD1 130202Z 25018KT 11/M06 A2965 RMK A01 T01061061  RH  030%=      5-min Rain = 0
KAD1 130203Z 25017KT 11/M06 A2965 RMK A01 T01061060  RH  030%=      5-min Rain = 0
KAD1 130204Z 25016KT 11/M06 A2965 RMK A01 T01061061  RH  030%=      5-min Rain = 0
KAD1 130205Z 25015KT 11/M06 A2965 RMK A01 T01061060  RH  031%=      5-min Rain = 0
KAD1 130206Z 25016KT 10/M06 A2965 RMK A01 T01041060  RH  031%=      5-min Rain = 0
KAD1 130207Z 25016KT 10/M06 A2965 RMK A01 T01031060  RH  031%=      5-min Rain = 0
KAD1 130208Z 25015KT 10/M06 A2965 RMK A01 T01041060  RH  031%=      5-min Rain = 0
KAD1 130209Z 25017KT 10/M06 A2965 RMK A01 T01031060  RH  031%=      5-min Rain = 0
KAD1 130210Z 25015KT 10/M06 A2965 RMK A01 T01031060  RH  031%=      5-min Rain = 0
KAD1 130211Z 25014KT 10/M06 A2965 RMK A01 T01031060  RH  031%=      5-min Rain = 0
KAD1 130212Z 25016G21KT 10/M06 A2965 RMK A01 T01011060  RH  032%=      5-min Rain = 0
KAD1 130213Z 25016KT 10/M06 A2965 RMK A01 T01011059  RH  032%=      5-min Rain = 0
KAD1 130214Z 25016KT 10/M06 A2965 RMK A01 T01021059  RH  032%=      5-min Rain = 0
KAD1 130215Z 25016KT 10/M06 A2965 RMK A01 T01021059  RH  032%=      5-min Rain = 0
KAD1 130216Z 25017KT 10/M06 A2965 RMK A01 T01031059  RH  032%=      5-min Rain = 0
KAD1 130217Z 25018KT 10/M06 A2965 RMK A01 T01031059  RH  031%=      5-min Rain = 0
KAD1 130218Z 25018KT 10/M06 A2965 RMK A01 T01041059  RH  031%=      5-min Rain = 0
KAD1 130219Z 25016KT 10/M06 A2965 RMK A01 T01041059  RH  031%=      5-min Rain = 0
KAD1 130220Z 25018KT 10/M06 A2965 RMK A01 T01041059  RH  031%=      5-min Rain = 0
KAD1 130221Z 25017KT 10/M06 A2965 RMK A01 T01041058  RH  031%=      5-min Rain = 0
KAD1 130222Z 25018KT 10/M06 A2965 RMK A01 T01041059  RH  031%=      5-min Rain = 0
KAD1 130223Z 25017KT 10/M06 A2965 RMK A01 T01041059  RH  031%=      5-min Rain = 0
KAD1 130224Z 25016KT 10/M06 A2965 RMK A01 T01041059  RH  031%=      5-min Rain = 0
KAD1 130225Z 25018KT 10/M06 A2965 RMK A01 T01031059  RH  031%=      5-min Rain = 0
KAD1 130226Z 25016KT 10/M06 A2965 RMK A01 T01031059  RH  032%=      5-min Rain = 0
KAD1 130227Z 25015KT 10/M06 A2965 RMK A01 T01021059  RH  032%=      5-min Rain = 0
KAD1 130228Z 26015KT 10/M06 A2965 RMK A01 T01001059  RH  032%=      5-min Rain = 0
KAD1 130229Z 25015KT 10/M06 A2965 RMK A01 T00991058  RH  032%=      5-min Rain = 0
KAD1 130230Z 25017KT 10/M06 A2965 RMK A01 T00991058  RH  033%=      5-min Rain = 0
KAD1 130231Z 25015KT 10/M06 A2965 RMK A01 T00981058  RH  033%=      5-min Rain = 0
KAD1 130232Z 25017KT 10/M06 A2965 RMK A01 T00971058  RH  033%=      5-min Rain = 0
KAD1 130233Z 25015KT 10/M06 A2965 RMK A01 T00971058  RH  033%=      5-min Rain = 0
KAD1 130234Z 25015KT 10/M06 A2965 RMK A01 T00971058  RH  033%=      5-min Rain = 0
KAD1 130235Z 25016KT 10/M06 A2965 RMK A01 T00971058  RH  033%=      5-min Rain = 0
KAD1 130236Z 26016KT 10/M06 A2965 RMK A01 T00971058  RH  033%=      5-min Rain = 0
KAD1 130237Z 26015KT 10/M06 A2965 RMK A01 T00971057  RH  033%=      5-min Rain = 0
KAD1 130238Z 25014KT 10/M06 A2965 RMK A01 T00961057  RH  033%=      5-min Rain = 0
KAD1 130239Z 25015KT 10/M06 A2965 RMK A01 T00951057  RH  034%=      5-min Rain = 0
KAD1 130240Z 25014KT 10/M06 A2965 RMK A01 T00951057  RH  034%=      5-min Rain = 0
KAD1 130241Z 25016KT 09/M06 A2965 RMK A01 T00941057  RH  034%=      5-min Rain = 0
KAD1 130242Z 25014KT 09/M06 A2965 RMK A01 T00941057  RH  034%=      5-min Rain = 0
KAD1 130243Z 25014KT 10/M06 A2965 RMK A01 T00951057  RH  034%=      5-min Rain = 0
KAD1 130244Z 25014KT 10/M06 A2965 RMK A01 T00951057  RH  034%=      5-min Rain = 0
KAD1 130245Z 25016KT 09/M06 A2965 RMK A01 T00941057  RH  034%=      5-min Rain = 0
KAD1 130246Z 25015KT 10/M06 A2965 RMK A01 T00961056  RH  034%=      5-min Rain = 0
KAD1 130247Z 25016KT 10/M06 A2965 RMK A01 T00961057  RH  034%=      5-min Rain = 0
KAD1 130248Z 25014KT 10/M06 A2965 RMK A01 T00961057  RH  034%=      5-min Rain = 0
KAD1 130249Z 25015KT 10/M06 A2965 RMK A01 T00961057  RH  034%=      5-min Rain = 0
KAD1 130250Z 25016KT 10/M06 A2965 RMK A01 T00961057  RH  034%=      5-min Rain = 0
KAD1 130251Z 25015KT 10/M06 A2965 RMK A01 T00961056  RH  034%=      5-min Rain = 0
KAD1 130252Z 25015KT 10/M06 A2965 RMK A01 T00951057  RH  034%=      5-min Rain = 0
KAD1 130253Z 25014KT 09/M06 A2965 RMK A01 T00941057  RH  034%=      5-min Rain = 0
KAD1 130254Z 25014KT 09/M06 A2966 RMK A01 T00941056  RH  034%=      5-min Rain = 0
KAD1 130255Z 25013KT 09/M06 A2966 RMK A01 T00931056  RH  034%=      5-min Rain = 0
KAD1 130256Z 25015KT 09/M06 A2966 RMK A01 T00921057  RH  034%=      5-min Rain = 0
KAD1 130257Z 25015KT 09/M06 A2966 RMK A01 T00931057  RH  034%=      5-min Rain = 0
KAD1 130258Z 25014KT 09/M06 A2966 RMK A01 T00931056  RH  034%=      5-min Rain = 0
KAD1 130259Z 25014KT 09/M06 A2966 RMK A01 T00931056  RH  034%=      5-min Rain = 0
KAD1 130300Z 25016KT 09/M06 A2966 RMK A01 T00931056  RH  034%=      5-min Rain = 0
KAD1 130301Z 25015KT 09/M06 A2966 RMK A01 T00941056  RH  034%=      5-min Rain = 0
KAD1 130302Z 25015KT 10/M06 A2966 RMK A01 T00951056  RH  034%=      5-min Rain = 0
KAD1 130303Z 25016KT 10/M06 A2966 RMK A01 T00951056  RH  034%=      5-min Rain = 0
KAD1 130304Z 25015KT 10/M06 A2966 RMK A01 T00951056  RH  034%=      5-min Rain = 0
KAD1 130305Z 25015KT 10/M06 A2966 RMK A01 T00951056  RH  034%=      5-min Rain = 0
KAD1 130306Z 25016KT 10/M06 A2966 RMK A01 T00951056  RH  034%=      5-min Rain = 0
KAD1 130307Z 25015KT 10/M06 A2966 RMK A01 T00961056  RH  034%=      5-min Rain = 0
KAD1 130308Z 25015KT 10/M06 A2966 RMK A01 T00971056  RH  034%=      5-min Rain = 0
KAD1 130309Z 25014G20KT 10/M06 A2966 RMK A01 T00961056  RH  034%=      5-min Rain = 0
KAD1 130310Z 25016KT 10/M06 A2966 RMK A01 T00961056  RH  034%=      5-min Rain = 0
KAD1 130311Z 25015G21KT 10/M06 A2966 RMK A01 T00951056  RH  034%=      5-min Rain = 0
KAD1 130312Z 25015KT 10/M06 A2966 RMK A01 T00961056  RH  034%=      5-min Rain = 0
KAD1 130313Z 25014G19KT 10/M06 A2966 RMK A01 T00971056  RH  034%=      5-min Rain = 0
KAD1 130314Z 25015KT 10/M06 A2966 RMK A01 T00961056  RH  034%=      5-min Rain = 0
KAD1 130315Z 25015KT 10/M06 A2966 RMK A01 T00961056  RH  034%=      5-min Rain = 0
KAD1 130316Z 25015KT 10/M06 A2966 RMK A01 T00961056  RH  034%=      5-min Rain = 0
KAD1 130317Z 25015KT 10/M06 A2966 RMK A01 T00961056  RH  034%=      5-min Rain = 0
KAD1 130318Z 25015KT 10/M06 A2966 RMK A01 T00961056  RH  034%=      5-min Rain = 0
KAD1 130319Z 25017KT 10/M06 A2966 RMK A01 T00961056  RH  034%=      5-min Rain = 0
KAD1 130320Z 25015KT 10/M06 A2966 RMK A01 T00971056  RH  034%=      5-min Rain = 0
KAD1 130321Z 25014KT 10/M06 A2966 RMK A01 T00961056  RH  034%=      5-min Rain = 0
KAD1 130322Z 25015KT 09/M06 A2966 RMK A01 T00931056  RH  034%=      5-min Rain = 0
KAD1 130323Z 25015KT 09/M06 A2966 RMK A01 T00931055  RH  035%=      5-min Rain = 0
KAD1 130324Z 26014KT 09/M06 A2966 RMK A01 T00931055  RH  035%=      5-min Rain = 0
KAD1 130325Z 25015KT 09/M06 A2966 RMK A01 T00921055  RH  035%=      5-min Rain = 0
KAD1 130326Z 25015KT 09/M06 A2966 RMK A01 T00911055  RH  035%=      5-min Rain = 0
KAD1 130327Z 25014KT 09/M06 A2966 RMK A01 T00911055  RH  035%=      5-min Rain = 0
KAD1 130328Z 25014KT 09/M06 A2966 RMK A01 T00911055  RH  035%=      5-min Rain = 0
KAD1 130329Z 25015KT 09/M06 A2966 RMK A01 T00901055  RH  035%=      5-min Rain = 0
KAD1 130330Z 25014KT 09/M06 A2966 RMK A01 T00901055  RH  035%=      5-min Rain = 0
KAD1 130331Z 25016KT 09/M06 A2966 RMK A01 T00901055  RH  036%=      5-min Rain = 0
KAD1 130332Z 25014KT 09/M06 A2966 RMK A01 T00901055  RH  036%=      5-min Rain = 0
KAD1 130333Z 25014KT 09/M06 A2966 RMK A01 T00891055  RH  036%=      5-min Rain = 0
KAD1 130334Z 25015KT 09/M06 A2966 RMK A01 T00891055  RH  036%=      5-min Rain = 0
KAD1 130335Z 25014KT 09/M06 A2966 RMK A01 T00881055  RH  036%=      5-min Rain = 0
KAD1 130336Z 25012KT 09/M05 A2966 RMK A01 T00881054  RH  036%=      5-min Rain = 0
KAD1 130337Z 25014KT 09/M06 A2966 RMK A01 T00871055  RH  036%=      5-min Rain = 0
KAD1 130338Z 25014KT 09/M05 A2966 RMK A01 T00881054  RH  036%=      5-min Rain = 0
KAD1 130339Z 25013KT 09/M05 A2966 RMK A01 T00871054  RH  036%=      5-min Rain = 0
KAD1 130340Z 25013KT 09/M05 A2966 RMK A01 T00871054  RH  036%=      5-min Rain = 0
KAD1 130341Z 25013KT 09/M05 A2966 RMK A01 T00871054  RH  036%=      5-min Rain = 0
KAD1 130342Z 25014KT 09/M05 A2966 RMK A01 T00871054  RH  036%=      5-min Rain = 0
KAD1 130343Z 25015KT 09/M05 A2966 RMK A01 T00871054  RH  036%=      5-min Rain = 0
KAD1 130344Z 25013KT 09/M05 A2966 RMK A01 T00871054  RH  036%=      5-min Rain = 0
KAD1 130345Z 25014KT 09/M05 A2966 RMK A01 T00871054  RH  037%=      5-min Rain = 0
KAD1 130346Z 25014KT 09/M05 A2966 RMK A01 T00871054  RH  037%=      5-min Rain = 0
KAD1 130347Z 25013KT 09/M05 A2966 RMK A01 T00881053  RH  036%=      5-min Rain = 0
KAD1 130348Z 25014KT 09/M05 A2966 RMK A01 T00871054  RH  036%=      5-min Rain = 0
KAD1 130349Z 25013KT 09/M05 A2966 RMK A01 T00871053  RH  036%=      5-min Rain = 0
KAD1 130350Z 25013KT 09/M05 A2966 RMK A01 T00871053  RH  037%=      5-min Rain = 0
KAD1 130351Z 25013KT 09/M05 A2966 RMK A01 T00871053  RH  037%=      5-min Rain = 0
KAD1 130352Z 25013KT 09/M05 A2966 RMK A01 T00871053  RH  037%=      5-min Rain = 0
KAD1 130353Z 25013KT 09/M05 A2966 RMK A01 T00871053  RH  037%=      5-min Rain = 0
KAD1 130354Z 25013KT 09/M05 A2966 RMK A01 T00871053  RH  037%=      5-min Rain = 0
KAD1 130355Z 26012KT 09/M05 A2966 RMK A01 T00871053  RH  037%=      5-min Rain = 0
KAD1 130356Z 26013KT 09/M05 A2966 RMK A01 T00871052  RH  037%=      5-min Rain = 0
KAD1 130357Z 26012KT 09/M05 A2966 RMK A01 T00861052  RH  037%=      5-min Rain = 0
KAD1 130358Z 26013KT 09/M05 A2966 RMK A01 T00861052  RH  037%=      5-min Rain = 0
KAD1 130359Z 26013KT 09/M05 A2966 RMK A01 T00861052  RH  037%=      5-min Rain = 0
KAD1 130400Z 26013KT 09/M05 A2966 RMK A01 T00871052  RH  037%=      5-min Rain = 0
KAD1 130401Z 26013KT 09/M05 A2966 RMK A01 T00881051  RH  037%=      5-min Rain = 0
KAD1 130402Z 26013KT 09/M05 A2966 RMK A01 T00881051  RH  037%=      5-min Rain = 0
KAD1 130403Z 26013KT 09/M05 A2966 RMK A01 T00881051  RH  037%=      5-min Rain = 0
KAD1 130404Z 26013KT 09/M05 A2966 RMK A01 T00881051  RH  037%=      5-min Rain = 0
KAD1 130405Z 26014KT 09/M05 A2966 RMK A01 T00881051  RH  037%=      5-min Rain = 0
KAD1 130406Z 26013KT 09/M05 A2966 RMK A01 T00891051  RH  037%=      5-min Rain = 0
KAD1 130407Z 26012KT 09/M05 A2966 RMK A01 T00891051  RH  037%=      5-min Rain = 0
KAD1 130408Z 26014KT 09/M05 A2966 RMK A01 T00881051  RH  037%=      5-min Rain = 0
KAD1 130409Z 26013KT 09/M05 A2966 RMK A01 T00881051  RH  037%=      5-min Rain = 0
KAD1 130410Z 26014KT 09/M05 A2966 RMK A01 T00881051  RH  037%=      5-min Rain = 0
KAD1 130411Z 26014KT 09/M05 A2966 RMK A01 T00891050  RH  037%=      5-min Rain = 0
KAD1 130412Z 25012KT 09/M05 A2966 RMK A01 T00891051  RH  037%=      5-min Rain = 0
KAD1 130413Z 25012KT 09/M05 A2966 RMK A01 T00881051  RH  037%=      5-min Rain = 0
KAD1 130414Z 25012KT 09/M05 A2966 RMK A01 T00871051  RH  037%=      5-min Rain = 0
KAD1 130415Z 25012KT 09/M05 A2966 RMK A01 T00861050  RH  038%=      5-min Rain = 0
KAD1 130416Z 25012KT 09/M05 A2966 RMK A01 T00861051  RH  038%=      5-min Rain = 0
KAD1 130417Z 25013KT 09/M05 A2967 RMK A01 T00861051  RH  038%=      5-min Rain = 0
KAD1 130418Z 25012KT 09/M05 A2967 RMK A01 T00861051  RH  038%=      5-min Rain = 0
KAD1 130419Z 26011KT 09/M05 A2967 RMK A01 T00851051  RH  038%=      5-min Rain = 0
KAD1 130420Z 26011KT 08/M05 A2967 RMK A01 T00841051  RH  038%=      5-min Rain = 0
KAD1 130421Z 26011KT 08/M05 A2967 RMK A01 T00831052  RH  038%=      5-min Rain = 0
KAD1 130422Z 26011KT 08/M05 A2967 RMK A01 T00821052  RH  038%=      5-min Rain = 0
KAD1 130423Z 26011KT 08/M05 A2967 RMK A01 T00811052  RH  039%=      5-min Rain = 0
KAD1 130424Z 25011KT 08/M05 A2967 RMK A01 T00801052  RH  039%=      5-min Rain = 0
KAD1 130425Z 25011KT 08/M05 A2967 RMK A01 T00801052  RH  039%=      5-min Rain = 0
KAD1 130426Z 25011KT 08/M05 A2967 RMK A01 T00801052  RH  039%=      5-min Rain = 0
KAD1 130427Z 25010KT 08/M05 A2967 RMK A01 T00791052  RH  039%=      5-min Rain = 0
KAD1 130428Z 25011KT 08/M05 A2967 RMK A01 T00781052  RH  039%=      5-min Rain = 0
KAD1 130429Z 25011KT 08/M05 A2967 RMK A01 T00771052  RH  040%=      5-min Rain = 0
KAD1 130430Z 25011KT 08/M05 A2967 RMK A01 T00761052  RH  040%=      5-min Rain = 0
KAD1 130431Z 25010KT 08/M05 A2967 RMK A01 T00751051  RH  040%=      5-min Rain = 0
KAD1 130432Z 25011KT 08/M05 A2967 RMK A01 T00751052  RH  040%=      5-min Rain = 0
KAD1 130433Z 25011KT 08/M05 A2967 RMK A01 T00761051  RH  040%=      5-min Rain = 0
KAD1 130434Z 25011KT 08/M05 A2967 RMK A01 T00771051  RH  040%=      5-min Rain = 0
KAD1 130435Z 25011KT 08/M05 A2967 RMK A01 T00771051  RH  040%=      5-min Rain = 0
KAD1 130436Z 25012KT 08/M05 A2967 RMK A01 T00771050  RH  040%=      5-min Rain = 0
KAD1 130437Z 25013KT 08/M05 A2967 RMK A01 T00781050  RH  040%=      5-min Rain = 0
KAD1 130438Z 25013KT 08/M05 A2967 RMK A01 T00791050  RH  040%=      5-min Rain = 0
KAD1 130439Z 25013KT 08/M05 A2967 RMK A01 T00791050  RH  039%=      5-min Rain = 0
KAD1 130440Z 25012KT 08/M05 A2967 RMK A01 T00801050  RH  039%=      5-min Rain = 0
KAD1 130441Z 25013KT 08/M05 A2967 RMK A01 T00801050  RH  039%=      5-min Rain = 0
KAD1 130442Z 25013KT 08/M05 A2967 RMK A01 T00791050  RH  039%=      5-min Rain = 0
KAD1 130443Z 25012KT 08/M05 A2967 RMK A01 T00791050  RH  040%=      5-min Rain = 0
KAD1 130444Z 24013KT 08/M05 A2967 RMK A01 T00781050  RH  040%=      5-min Rain = 0
KAD1 130445Z 25012KT 08/M05 A2967 RMK A01 T00791050  RH  040%=      5-min Rain = 0
KAD1 130446Z 25011KT 08/M05 A2967 RMK A01 T00791050  RH  040%=      5-min Rain = 0
KAD1 130447Z 25012KT 08/M05 A2967 RMK A01 T00791050  RH  040%=      5-min Rain = 0
KAD1 130448Z 24012KT 08/M05 A2967 RMK A01 T00791050  RH  040%=      5-min Rain = 0
KAD1 130449Z 25012KT 08/M05 A2967 RMK A01 T00801050  RH  039%=      5-min Rain = 0
KAD1 130450Z 24012KT 08/M05 A2967 RMK A01 T00801050  RH  039%=      5-min Rain = 0
KAD1 130451Z 25012KT 08/M05 A2967 RMK A01 T00811050  RH  039%=      5-min Rain = 0
KAD1 130452Z 25011KT 08/M05 A2967 RMK A01 T00821049  RH  039%=      5-min Rain = 0
KAD1 130453Z 25012KT 08/M05 A2967 RMK A01 T00821049  RH  039%=      5-min Rain = 0
KAD1 130454Z 25012KT 08/M05 A2967 RMK A01 T00821049  RH  039%=      5-min Rain = 0
KAD1 130455Z 25013KT 08/M05 A2966 RMK A01 T00821049  RH  039%=      5-min Rain = 0
KAD1 130456Z 25012KT 08/M05 A2966 RMK A01 T00831049  RH  039%=      5-min Rain = 0
KAD1 130457Z 25012KT 08/M05 A2966 RMK A01 T00841049  RH  039%=      5-min Rain = 0
KAD1 130458Z 25011KT 08/M05 A2966 RMK A01 T00841049  RH  039%=      5-min Rain = 0
KAD1 130459Z 25012KT 08/M05 A2966 RMK A01 T00841049  RH  039%=      5-min Rain = 0
KAD1 130500Z 25012KT 08/M05 A2966 RMK A01 T00841049  RH  039%=      5-min Rain = 0
KAD1 130501Z 25012KT 08/M05 A2966 RMK A01 T00831049  RH  039%=      5-min Rain = 0
KAD1 130502Z 25013KT 08/M05 A2966 RMK A01 T00831049  RH  039%=      5-min Rain = 0
KAD1 130503Z 25013KT 08/M05 A2966 RMK A01 T00841049  RH  039%=      5-min Rain = 0
KAD1 130504Z 25012KT 08/M05 A2967 RMK A01 T00841049  RH  038%=      5-min Rain = 0
KAD1 130505Z 25012KT 08/M05 A2967 RMK A01 T00841049  RH  039%=      5-min Rain = 0
KAD1 130506Z 25011KT 08/M05 A2967 RMK A01 T00831049  RH  039%=      5-min Rain = 0
KAD1 130507Z 25012KT 08/M05 A2966 RMK A01 T00821049  RH  039%=      5-min Rain = 0
KAD1 130508Z 26012KT 08/M05 A2966 RMK A01 T00821049  RH  039%=      5-min Rain = 0
KAD1 130509Z 26011KT 08/M05 A2966 RMK A01 T00821049  RH  039%=      5-min Rain = 0
KAD1 130510Z 26011KT 08/M05 A2966 RMK A01 T00811049  RH  039%=      5-min Rain = 0
KAD1 130511Z 26011KT 08/M05 A2966 RMK A01 T00811049  RH  039%=      5-min Rain = 0
KAD1 130512Z 26011KT 08/M05 A2966 RMK A01 T00801050  RH  039%=      5-min Rain = 0
KAD1 130513Z 26011KT 08/M05 A2967 RMK A01 T00791050  RH  040%=      5-min Rain = 0
KAD1 130514Z 26011KT 08/M05 A2967 RMK A01 T00771050  RH  040%=      5-min Rain = 0
KAD1 130515Z 26011KT 08/M05 A2967 RMK A01 T00771050  RH  040%=      5-min Rain = 0
KAD1 130516Z 26011KT 08/M05 A2967 RMK A01 T00761050  RH  040%=      5-min Rain = 0
KAD1 130517Z 26012KT 08/M05 A2967 RMK A01 T00761050  RH  041%=      5-min Rain = 0
KAD1 130518Z 26012KT 08/M05 A2967 RMK A01 T00751050  RH  041%=      5-min Rain = 0
KAD1 130519Z 26011KT 08/M05 A2967 RMK A01 T00761049  RH  041%=      5-min Rain = 0
KAD1 130520Z 26012KT 08/M05 A2967 RMK A01 T00771049  RH  041%=      5-min Rain = 0
KAD1 130521Z 26011KT 08/M05 A2967 RMK A01 T00781048  RH  040%=      5-min Rain = 0
KAD1 130522Z 26011KT 08/M05 A2967 RMK A01 T00781048  RH  040%=      5-min Rain = 0
KAD1 130523Z 26011KT 08/M05 A2967 RMK A01 T00781049  RH  040%=      5-min Rain = 0
KAD1 130524Z 27010KT 08/M05 A2967 RMK A01 T00781049  RH  040%=      5-min Rain = 0
KAD1 130525Z 26010KT 08/M05 A2967 RMK A01 T00761049  RH  040%=      5-min Rain = 0
KAD1 130526Z 27010KT 08/M05 A2967 RMK A01 T00761050  RH  041%=      5-min Rain = 0
KAD1 130527Z 27010KT 07/M05 A2967 RMK A01 T00741050  RH  041%=      5-min Rain = 0
KAD1 130528Z 27009KT 07/M05 A2967 RMK A01 T00731050  RH  041%=      5-min Rain = 0
KAD1 130529Z 27009KT 07/M05 A2967 RMK A01 T00721050  RH  042%=      5-min Rain = 0
KAD1 130530Z 27009KT 07/M05 A2967 RMK A01 T00711050  RH  042%=      5-min Rain = 0
KAD1 130531Z 27010KT 07/M05 A2967 RMK A01 T00711050  RH  042%=      5-min Rain = 0
KAD1 130532Z 27010KT 07/M05 A2967 RMK A01 T00701051  RH  042%=      5-min Rain = 0
KAD1 130533Z 27010KT 07/M05 A2967 RMK A01 T00691051  RH  042%=      5-min Rain = 0
KAD1 130534Z 27009KT 07/M05 A2967 RMK A01 T00681050  RH  042%=      5-min Rain = 0
KAD1 130535Z 27009KT 07/M05 A2967 RMK A01 T00691050  RH  042%=      5-min Rain = 0
KAD1 130536Z 28009KT 07/M05 A2967 RMK A01 T00701050  RH  042%=      5-min Rain = 0
KAD1 130537Z 28010KT 07/M05 A2967 RMK A01 T00701050  RH  042%=      5-min Rain = 0
KAD1 130538Z 28010KT 07/M05 A2967 RMK A01 T00711049  RH  042%=      5-min Rain = 0
KAD1 130539Z 28010KT 07/M05 A2967 RMK A01 T00711049  RH  042%=      5-min Rain = 0
KAD1 130540Z 28010KT 07/M05 A2968 RMK A01 T00711050  RH  042%=      5-min Rain = 0
KAD1 130541Z 27011KT 07/M05 A2968 RMK A01 T00711050  RH  042%=      5-min Rain = 0
KAD1 130542Z 27011KT 07/M05 A2967 RMK A01 T00711050  RH  042%=      5-min Rain = 0
KAD1 130543Z 27011KT 07/M05 A2967 RMK A01 T00701050  RH  042%=      5-min Rain = 0
KAD1 130544Z 27011KT 07/M05 A2967 RMK A01 T00691050  RH  042%=      5-min Rain = 0
KAD1 130545Z 27011KT 07/M05 A2967 RMK A01 T00691050  RH  043%=      5-min Rain = 0
KAD1 130546Z 27012KT 07/M05 A2968 RMK A01 T00681050  RH  043%=      5-min Rain = 0
KAD1 130547Z 27011KT 07/M05 A2968 RMK A01 T00681050  RH  043%=      5-min Rain = 0
KAD1 130548Z 27011KT 07/M05 A2967 RMK A01 T00691049  RH  043%=      5-min Rain = 0
KAD1 130549Z 27012KT 07/M05 A2967 RMK A01 T00701049  RH  042%=      5-min Rain = 0
KAD1 130550Z 27012KT 07/M05 A2967 RMK A01 T00711049  RH  042%=      5-min Rain = 0
KAD1 130551Z 26011KT 07/M05 A2968 RMK A01 T00721048  RH  042%=      5-min Rain = 0
KAD1 130552Z 26011KT 07/M05 A2968 RMK A01 T00731048  RH  042%=      5-min Rain = 0
KAD1 130553Z 26011KT 07/M05 A2968 RMK A01 T00731048  RH  042%=      5-min Rain = 0
KAD1 130554Z 26011KT 07/M05 A2968 RMK A01 T00731049  RH  042%=      5-min Rain = 0
KAD1 130555Z 25012KT 07/M05 A2968 RMK A01 T00721049  RH  042%=      5-min Rain = 0
KAD1 130556Z 25012KT 07/M05 A2968 RMK A01 T00711049  RH  042%=      5-min Rain = 0
KAD1 130557Z 25013KT 07/M05 A2968 RMK A01 T00711049  RH  042%=      5-min Rain = 0
KAD1 130558Z 25013KT 07/M05 A2968 RMK A01 T00711049  RH  042%=      5-min Rain = 0
KAD1 130559Z 25013KT 07/M05 A2968 RMK A01 T00711049  RH  042%=      5-min Rain = 0

Page generated in 0.1426 seconds.